Observation data for Tarzan on 02/14/2020      Previous  Date  Next       Current Mesonet Observations  Soil Data  Daily Summary Page  Observations in Plain Language
KTA1 140600Z 09014KT M01/M01 A3029 RMK A01 T10101014  RH  097%=      5-min Rain = 0
KTA1 140601Z 09012KT M01/M01 A3029 RMK A01 T10101014  RH  097%=      5-min Rain = 0
KTA1 140602Z 10013KT M01/M01 A3029 RMK A01 T10091013  RH  097%=      5-min Rain = 0
KTA1 140603Z 09012KT M01/M01 A3029 RMK A01 T10091013  RH  097%=      5-min Rain = 0
KTA1 140604Z 09013KT M01/M01 A3029 RMK A01 T10091013  RH  097%=      5-min Rain = 0
KTA1 140605Z 09014KT M01/M01 A3029 RMK A01 T10091013  RH  097%=      5-min Rain = 0
KTA1 140606Z 09015KT M01/M01 A3029 RMK A01 T10091013  RH  097%=      5-min Rain = 0
KTA1 140607Z 10012KT M01/M01 A3029 RMK A01 T10091013  RH  097%=      5-min Rain = 0
KTA1 140608Z 09012KT M01/M01 A3029 RMK A01 T10091013  RH  097%=      5-min Rain = 0
KTA1 140609Z 10012KT M01/M01 A3029 RMK A01 T10091013  RH  097%=      5-min Rain = 0
KTA1 140610Z 10012KT M01/M01 A3029 RMK A01 T10091013  RH  097%=      5-min Rain = 0
KTA1 140611Z 10010KT M01/M01 A3029 RMK A01 T10091013  RH  097%=      5-min Rain = 0
KTA1 140612Z 10013KT M01/M01 A3029 RMK A01 T10081012  RH  097%=      5-min Rain = 0
KTA1 140613Z 10012KT M01/M01 A3029 RMK A01 T10091012  RH  097%=      5-min Rain = 0
KTA1 140614Z 09012KT M01/M01 A3029 RMK A01 T10091012  RH  097%=      5-min Rain = 0
KTA1 140615Z 09013KT M01/M01 A3029 RMK A01 T10091012  RH  097%=      5-min Rain = 0
KTA1 140616Z 09014KT M01/M01 A3029 RMK A01 T10091012  RH  097%=      5-min Rain = 0
KTA1 140617Z 10012KT M01/M01 A3029 RMK A01 T10091012  RH  098%=      5-min Rain = 0
KTA1 140618Z 09012KT M01/M01 A3029 RMK A01 T10091012  RH  098%=      5-min Rain = 0
KTA1 140619Z 10012KT M01/M01 A3029 RMK A01 T10091012  RH  098%=      5-min Rain = 0
KTA1 140620Z 10010KT M01/M01 A3029 RMK A01 T10081011  RH  098%=      5-min Rain = 0
KTA1 140621Z 10011KT M01/M01 A3029 RMK A01 T10081011  RH  098%=      5-min Rain = 0
KTA1 140622Z 10011KT M01/M01 A3029 RMK A01 T10081011  RH  098%=      5-min Rain = 0
KTA1 140623Z 10010KT M01/M01 A3029 RMK A01 T10081011  RH  098%=      5-min Rain = 0
KTA1 140624Z 09012KT M01/M01 A3029 RMK A01 T10081011  RH  098%=      5-min Rain = 0
KTA1 140625Z 09011KT M01/M01 A3029 RMK A01 T10081011  RH  098%=      5-min Rain = 0
KTA1 140626Z 10009KT M01/M01 A3029 RMK A01 T10081011  RH  098%=      5-min Rain = 0
KTA1 140627Z 10011KT M01/M01 A3029 RMK A01 T10081011  RH  098%=      5-min Rain = 0
KTA1 140628Z 09010KT M01/M01 A3029 RMK A01 T10071010  RH  098%=      5-min Rain = 0
KTA1 140629Z 10011KT M01/M01 A3029 RMK A01 T10071011  RH  098%=      5-min Rain = 0
KTA1 140630Z 10011KT M01/M01 A3029 RMK A01 T10071010  RH  098%=      5-min Rain = 0
KTA1 140631Z 10009KT M01/M01 A3029 RMK A01 T10071010  RH  098%=      5-min Rain = 0
KTA1 140632Z 10009KT M01/M01 A3029 RMK A01 T10061009  RH  098%=      5-min Rain = 0
KTA1 140633Z 10012KT M01/M01 A3029 RMK A01 T10061010  RH  098%=      5-min Rain = 0
KTA1 140634Z 10012KT M01/M01 A3029 RMK A01 T10061010  RH  098%=      5-min Rain = 0
KTA1 140635Z 10013KT M01/M01 A3029 RMK A01 T10061010  RH  097%=      5-min Rain = 0
KTA1 140636Z 11013KT M01/M01 A3029 RMK A01 T10061010  RH  098%=      5-min Rain = 0
KTA1 140637Z 11013KT M01/M01 A3029 RMK A01 T10061010  RH  098%=      5-min Rain = 0
KTA1 140638Z 11013KT M01/M01 A3029 RMK A01 T10071010  RH  098%=      5-min Rain = 0
KTA1 140639Z 11013KT M01/M01 A3029 RMK A01 T10071010  RH  098%=      5-min Rain = 0
KTA1 140640Z 11014KT M01/M01 A3029 RMK A01 T10071010  RH  098%=      5-min Rain = 0
KTA1 140641Z 11013KT M01/M01 A3029 RMK A01 T10081011  RH  098%=      5-min Rain = 0
KTA1 140642Z 11012KT M01/M01 A3029 RMK A01 T10071010  RH  098%=      5-min Rain = 0
KTA1 140643Z 11013KT M01/M01 A3029 RMK A01 T10081010  RH  098%=      5-min Rain = 0
KTA1 140644Z 11014KT M01/M01 A3029 RMK A01 T10081010  RH  098%=      5-min Rain = 0
KTA1 140645Z 11012KT M01/M01 A3029 RMK A01 T10081010  RH  098%=      5-min Rain = 0
KTA1 140646Z 11012KT M01/M01 A3029 RMK A01 T10081009  RH  099%=      5-min Rain = 0
KTA1 140647Z 10012KT M01/M01 A3029 RMK A01 T10081009  RH  099%=      5-min Rain = 0
KTA1 140648Z 11011KT M01/M01 A3029 RMK A01 T10081009  RH  099%=      5-min Rain = 0
KTA1 140649Z 11014KT M01/M01 A3029 RMK A01 T10071009  RH  099%=      5-min Rain = 0
KTA1 140650Z 11012KT M01/M01 A303 RMK A01 T10071009  RH  099%=      5-min Rain = 0
KTA1 140651Z 10013KT M01/M01 A3029 RMK A01 T10071009  RH  099%=      5-min Rain = 0
KTA1 140652Z 10011KT M01/M01 A3029 RMK A01 T10071008  RH  099%=      5-min Rain = 0
KTA1 140653Z 10012KT M01/M01 A3029 RMK A01 T10071008  RH  099%=      5-min Rain = 0
KTA1 140654Z 10012KT M01/M01 A3029 RMK A01 T10071009  RH  099%=      5-min Rain = 0
KTA1 140655Z 10010KT M01/M01 A3029 RMK A01 T10071008  RH  099%=      5-min Rain = 0
KTA1 140656Z 10011KT M01/M01 A3029 RMK A01 T10071008  RH  099%=      5-min Rain = 0
KTA1 140657Z 11013KT M01/M01 A3029 RMK A01 T10071008  RH  099%=      5-min Rain = 0
KTA1 140658Z 10012KT M01/M01 A3029 RMK A01 T10071008  RH  099%=      5-min Rain = 0
KTA1 140659Z 11012KT M01/M01 A3029 RMK A01 T10071008  RH  099%=      5-min Rain = 0
KTA1 140700Z 10013KT M01/M01 A3029 RMK A01 T10071008  RH  099%=      5-min Rain = 0
KTA1 140701Z 11012KT M01/M01 A3029 RMK A01 T10071008  RH  099%=      5-min Rain = 0
KTA1 140702Z 11012KT M01/M01 A3029 RMK A01 T10071008  RH  099%=      5-min Rain = 0
KTA1 140703Z 11012KT M01/M01 A3029 RMK A01 T10071008  RH  099%=      5-min Rain = 0
KTA1 140704Z 10010KT M01/M01 A3029 RMK A01 T10071008  RH  099%=      5-min Rain = 0
KTA1 140705Z 10011KT M01/M01 A303 RMK A01 T10071008  RH  099%=      5-min Rain = 0
KTA1 140706Z 10011KT M01/M01 A303 RMK A01 T10071008  RH  099%=      5-min Rain = 0
KTA1 140707Z 10012KT M01/M01 A303 RMK A01 T10071008  RH  099%=      5-min Rain = 0
KTA1 140708Z 11012KT M01/M01 A303 RMK A01 T10071008  RH  099%=      5-min Rain = 0
KTA1 140709Z 11011KT M01/M01 A303 RMK A01 T10071008  RH  099%=      5-min Rain = 0
KTA1 140710Z 11010KT M01/M01 A303 RMK A01 T10061007  RH  099%=      5-min Rain = 0
KTA1 140711Z 10012KT M01/M01 A303 RMK A01 T10061008  RH  099%=      5-min Rain = 0
KTA1 140712Z 11012KT M01/M01 A303 RMK A01 T10061008  RH  099%=      5-min Rain = 0
KTA1 140713Z 11010KT M01/M01 A303 RMK A01 T10061008  RH  099%=      5-min Rain = 0
KTA1 140714Z 11011KT M01/M01 A303 RMK A01 T10061007  RH  099%=      5-min Rain = 0
KTA1 140715Z 11013KT M01/M01 A303 RMK A01 T10061007  RH  099%=      5-min Rain = 0
KTA1 140716Z 11013KT M01/M01 A303 RMK A01 T10061008  RH  099%=      5-min Rain = 0
KTA1 140717Z 11013KT M01/M01 A303 RMK A01 T10061008  RH  099%=      5-min Rain = 0
KTA1 140718Z 11011KT M01/M01 A303 RMK A01 T10061008  RH  099%=      5-min Rain = 0
KTA1 140719Z 11011KT M01/M01 A303 RMK A01 T10061008  RH  099%=      5-min Rain = 0
KTA1 140720Z 11013KT M01/M01 A303 RMK A01 T10061008  RH  099%=      5-min Rain = 0
KTA1 140721Z 10014KT M01/M01 A303 RMK A01 T10061008  RH  099%=      5-min Rain = 0
KTA1 140722Z 11014KT M01/M01 A303 RMK A01 T10071009  RH  099%=      5-min Rain = 0
KTA1 140723Z 11013KT M01/M01 A303 RMK A01 T10071009  RH  099%=      5-min Rain = 0
KTA1 140724Z 11014KT M01/M01 A303 RMK A01 T10071008  RH  099%=      5-min Rain = 0
KTA1 140725Z 11011KT M01/M01 A303 RMK A01 T10071009  RH  099%=      5-min Rain = 0
KTA1 140726Z 11011KT M01/M01 A303 RMK A01 T10071009  RH  099%=      5-min Rain = 0
KTA1 140727Z 11012KT M01/M01 A303 RMK A01 T10071008  RH  099%=      5-min Rain = 0
KTA1 140728Z 11012KT M01/M01 A303 RMK A01 T10061008  RH  099%=      5-min Rain = 0
KTA1 140729Z 11011KT M01/M01 A303 RMK A01 T10061008  RH  099%=      5-min Rain = 0
KTA1 140730Z 11013KT M01/M01 A303 RMK A01 T10061008  RH  099%=      5-min Rain = 0
KTA1 140731Z 11013KT M01/M01 A303 RMK A01 T10061008  RH  099%=      5-min Rain = 0
KTA1 140732Z 11015KT M01/M01 A303 RMK A01 T10061009  RH  098%=      5-min Rain = 0
KTA1 140733Z 11013KT M01/M01 A303 RMK A01 T10061009  RH  098%=      5-min Rain = 0
KTA1 140734Z 11014KT M01/M01 A303 RMK A01 T10061009  RH  098%=      5-min Rain = 0
KTA1 140735Z 11013KT M01/M01 A303 RMK A01 T10061009  RH  098%=      5-min Rain = 0
KTA1 140736Z 11012KT M01/M01 A303 RMK A01 T10061009  RH  098%=      5-min Rain = 0
KTA1 140737Z 11010KT M01/M01 A303 RMK A01 T10061009  RH  098%=      5-min Rain = 0
KTA1 140738Z 10012KT M01/M01 A303 RMK A01 T10061009  RH  098%=      5-min Rain = 0
KTA1 140739Z 11014KT M01/M01 A303 RMK A01 T10061009  RH  098%=      5-min Rain = 0
KTA1 140740Z 11013KT M01/M01 A303 RMK A01 T10061009  RH  097%=      5-min Rain = 0
KTA1 140741Z 11011KT M01/M01 A303 RMK A01 T10061010  RH  097%=      5-min Rain = 0
KTA1 140742Z 11012KT M01/M01 A303 RMK A01 T10061010  RH  097%=      5-min Rain = 0
KTA1 140743Z 11011KT M01/M01 A303 RMK A01 T10051010  RH  097%=      5-min Rain = 0
KTA1 140744Z 11012KT M01/M01 A303 RMK A01 T10051010  RH  097%=      5-min Rain = 0
KTA1 140745Z 11012KT M01/M01 A303 RMK A01 T10051011  RH  096%=      5-min Rain = 0
KTA1 140746Z 11012KT M01/M01 A303 RMK A01 T10051011  RH  096%=      5-min Rain = 0
KTA1 140747Z 11012KT M01/M01 A303 RMK A01 T10051011  RH  096%=      5-min Rain = 0
KTA1 140748Z 11012KT M01/M01 A303 RMK A01 T10051011  RH  096%=      5-min Rain = 0
KTA1 140749Z 11012KT M01/M01 A303 RMK A01 T10051011  RH  095%=      5-min Rain = 0
KTA1 140750Z 11011KT M01/M01 A303 RMK A01 T10051012  RH  095%=      5-min Rain = 0
KTA1 140751Z 11013KT M00/M01 A303 RMK A01 T10041012  RH  095%=      5-min Rain = 0
KTA1 140752Z 11010KT M01/M01 A303 RMK A01 T10051013  RH  094%=      5-min Rain = 0
KTA1 140753Z 11011KT M01/M01 A303 RMK A01 T10051013  RH  094%=      5-min Rain = 0
KTA1 140754Z 11012KT M01/M01 A303 RMK A01 T10051014  RH  094%=      5-min Rain = 0
KTA1 140755Z 11011KT M01/M01 A303 RMK A01 T10051014  RH  093%=      5-min Rain = 0
KTA1 140756Z 11010KT M01/M01 A303 RMK A01 T10051014  RH  093%=      5-min Rain = 0
KTA1 140757Z 11011KT M01/M02 A303 RMK A01 T10051015  RH  093%=      5-min Rain = 0
KTA1 140758Z 11011KT M01/M02 A303 RMK A01 T10051015  RH  093%=      5-min Rain = 0
KTA1 140759Z 11010KT M01/M02 A303 RMK A01 T10051015  RH  093%=      5-min Rain = 0
KTA1 140800Z 10010KT M01/M02 A303 RMK A01 T10051015  RH  093%=      5-min Rain = 0
KTA1 140801Z 11011KT M01/M02 A303 RMK A01 T10051015  RH  093%=      5-min Rain = 0
KTA1 140802Z 11010KT M01/M02 A303 RMK A01 T10051015  RH  093%=      5-min Rain = 0
KTA1 140803Z 11009KT M01/M02 A303 RMK A01 T10061015  RH  093%=      5-min Rain = 0
KTA1 140804Z 10009KT M01/M02 A303 RMK A01 T10061015  RH  093%=      5-min Rain = 0
KTA1 140805Z 11009KT M01/M02 A303 RMK A01 T10061015  RH  094%=      5-min Rain = 0
KTA1 140806Z 11011KT M01/M02 A303 RMK A01 T10061015  RH  094%=      5-min Rain = 0
KTA1 140807Z 10010KT M01/M02 A303 RMK A01 T10061015  RH  093%=      5-min Rain = 0
KTA1 140808Z 11009KT M01/M02 A303 RMK A01 T10061016  RH  093%=      5-min Rain = 0
KTA1 140809Z 10008KT M01/M02 A303 RMK A01 T10061016  RH  093%=      5-min Rain = 0
KTA1 140810Z 10009KT M01/M02 A303 RMK A01 T10061016  RH  093%=      5-min Rain = 0
KTA1 140811Z 11009KT M01/M02 A303 RMK A01 T10061016  RH  093%=      5-min Rain = 0
KTA1 140812Z 11010KT M01/M02 A303 RMK A01 T10061016  RH  093%=      5-min Rain = 0
KTA1 140813Z 11009KT M01/M02 A303 RMK A01 T10061016  RH  093%=      5-min Rain = 0
KTA1 140814Z 11009KT M01/M02 A303 RMK A01 T10071016  RH  093%=      5-min Rain = 0
KTA1 140815Z 11012KT M01/M02 A303 RMK A01 T10071016  RH  093%=      5-min Rain = 0
KTA1 140816Z 11010KT M01/M02 A303 RMK A01 T10071017  RH  093%=      5-min Rain = 0
KTA1 140817Z 11010KT M01/M02 A303 RMK A01 T10081017  RH  093%=      5-min Rain = 0
KTA1 140818Z 11009KT M01/M02 A303 RMK A01 T10081017  RH  094%=      5-min Rain = 0
KTA1 140819Z 11010KT M01/M02 A303 RMK A01 T10081017  RH  094%=      5-min Rain = 0
KTA1 140820Z 11010KT M01/M02 A303 RMK A01 T10081017  RH  094%=      5-min Rain = 0
KTA1 140821Z 11010KT M01/M02 A303 RMK A01 T10081017  RH  094%=      5-min Rain = 0
KTA1 140822Z 11008KT M01/M02 A303 RMK A01 T10081017  RH  093%=      5-min Rain = 0
KTA1 140823Z 11011KT M01/M02 A303 RMK A01 T10081017  RH  093%=      5-min Rain = 0
KTA1 140824Z 11011KT M01/M02 A303 RMK A01 T10081018  RH  093%=      5-min Rain = 0
KTA1 140825Z 11011KT M01/M02 A303 RMK A01 T10081018  RH  093%=      5-min Rain = 0
KTA1 140826Z 11009KT M01/M02 A303 RMK A01 T10081018  RH  093%=      5-min Rain = 0
KTA1 140827Z 10007KT M01/M02 A303 RMK A01 T10081017  RH  093%=      5-min Rain = 0
KTA1 140828Z 10007KT M01/M02 A303 RMK A01 T10081017  RH  094%=      5-min Rain = 0
KTA1 140829Z 10008KT M01/M02 A303 RMK A01 T10081017  RH  094%=      5-min Rain = 0
KTA1 140830Z 10009KT M01/M02 A303 RMK A01 T10081018  RH  094%=      5-min Rain = 0
KTA1 140831Z 11009KT M01/M02 A303 RMK A01 T10081018  RH  093%=      5-min Rain = 0
KTA1 140832Z 11010KT M01/M02 A303 RMK A01 T10081018  RH  093%=      5-min Rain = 0
KTA1 140833Z 11009KT M01/M02 A303 RMK A01 T10081018  RH  093%=      5-min Rain = 0
KTA1 140834Z 11009KT M01/M02 A303 RMK A01 T10081018  RH  093%=      5-min Rain = 0
KTA1 140835Z 11010KT M01/M02 A303 RMK A01 T10081018  RH  093%=      5-min Rain = 0
KTA1 140836Z 11011KT M01/M02 A303 RMK A01 T10081018  RH  093%=      5-min Rain = 0
KTA1 140837Z 11010KT M01/M02 A303 RMK A01 T10081018  RH  093%=      5-min Rain = 0
KTA1 140838Z 11012KT M01/M02 A303 RMK A01 T10081018  RH  093%=      5-min Rain = 0
KTA1 140839Z 11011KT M01/M02 A303 RMK A01 T10081019  RH  093%=      5-min Rain = 0
KTA1 140840Z 11012KT M01/M02 A303 RMK A01 T10081019  RH  092%=      5-min Rain = 0
KTA1 140841Z 11010KT M01/M02 A303 RMK A01 T10081019  RH  092%=      5-min Rain = 0
KTA1 140842Z 11011KT M01/M02 A303 RMK A01 T10081019  RH  092%=      5-min Rain = 0
KTA1 140843Z 11011KT M01/M02 A303 RMK A01 T10081019  RH  092%=      5-min Rain = 0
KTA1 140844Z 11011KT M01/M02 A303 RMK A01 T10081020  RH  092%=      5-min Rain = 0
KTA1 140845Z 11013KT M01/M02 A303 RMK A01 T10081020  RH  092%=      5-min Rain = 0
KTA1 140846Z 11012KT M01/M02 A303 RMK A01 T10081020  RH  092%=      5-min Rain = 0
KTA1 140847Z 11011KT M01/M02 A303 RMK A01 T10081020  RH  092%=      5-min Rain = 0
KTA1 140848Z 11010KT M01/M02 A303 RMK A01 T10081021  RH  091%=      5-min Rain = 0
KTA1 140849Z 11012KT M01/M02 A303 RMK A01 T10081020  RH  091%=      5-min Rain = 0
KTA1 140850Z 11012KT M01/M02 A303 RMK A01 T10081021  RH  091%=      5-min Rain = 0
KTA1 140851Z 11010KT M01/M02 A303 RMK A01 T10081021  RH  091%=      5-min Rain = 0
KTA1 140852Z 11011KT M01/M02 A303 RMK A01 T10081020  RH  091%=      5-min Rain = 0
KTA1 140853Z 11012KT M01/M02 A3029 RMK A01 T10081020  RH  091%=      5-min Rain = 0
KTA1 140854Z 11012KT M01/M02 A3029 RMK A01 T10081020  RH  091%=      5-min Rain = 0
KTA1 140855Z 11011KT M01/M02 A3029 RMK A01 T10081021  RH  091%=      5-min Rain = 0
KTA1 140856Z 11010KT M01/M02 A3029 RMK A01 T10081021  RH  091%=      5-min Rain = 0
KTA1 140857Z 11011KT M01/M02 A3029 RMK A01 T10081020  RH  091%=      5-min Rain = 0
KTA1 140858Z 11012KT M01/M02 A3029 RMK A01 T10081020  RH  091%=      5-min Rain = 0
KTA1 140859Z 11011KT M01/M02 A3029 RMK A01 T10081021  RH  091%=      5-min Rain = 0
KTA1 140900Z 11012KT M01/M02 A3029 RMK A01 T10081021  RH  091%=      5-min Rain = 0
KTA1 140901Z 11012KT M01/M02 A303 RMK A01 T10081021  RH  091%=      5-min Rain = 0
KTA1 140902Z 10010KT M01/M02 A303 RMK A01 T10081021  RH  091%=      5-min Rain = 0
KTA1 140903Z 11010KT M01/M02 A303 RMK A01 T10081021  RH  091%=      5-min Rain = 0
KTA1 140904Z 10011KT M01/M02 A303 RMK A01 T10081021  RH  091%=      5-min Rain = 0
KTA1 140905Z 11010KT M01/M02 A303 RMK A01 T10081021  RH  091%=      5-min Rain = 0
KTA1 140906Z 11010KT M01/M02 A303 RMK A01 T10081021  RH  091%=      5-min Rain = 0
KTA1 140907Z 11009KT M01/M02 A303 RMK A01 T10081021  RH  091%=      5-min Rain = 0
KTA1 140908Z 11012KT M01/M02 A303 RMK A01 T10081021  RH  091%=      5-min Rain = 0
KTA1 140909Z 11013KT M01/M02 A3029 RMK A01 T10081021  RH  091%=      5-min Rain = 0
KTA1 140910Z 11012KT M01/M02 A3029 RMK A01 T10091022  RH  091%=      5-min Rain = 0
KTA1 140911Z 11011KT M01/M02 A3029 RMK A01 T10091022  RH  091%=      5-min Rain = 0
KTA1 140912Z 10010KT M01/M02 A3029 RMK A01 T10091022  RH  091%=      5-min Rain = 0
KTA1 140913Z 10011KT M01/M02 A3029 RMK A01 T10091021  RH  091%=      5-min Rain = 0
KTA1 140914Z 10011KT M01/M02 A3029 RMK A01 T10091021  RH  091%=      5-min Rain = 0
KTA1 140915Z 10011KT M01/M02 A3029 RMK A01 T10081021  RH  091%=      5-min Rain = 0
KTA1 140916Z 10011KT M01/M02 A303 RMK A01 T10091022  RH  091%=      5-min Rain = 0
KTA1 140917Z 10011KT M01/M02 A303 RMK A01 T10091022  RH  091%=      5-min Rain = 0
KTA1 140918Z 11010KT M01/M02 A303 RMK A01 T10081021  RH  091%=      5-min Rain = 0
KTA1 140919Z 10010KT M01/M02 A303 RMK A01 T10091021  RH  091%=      5-min Rain = 0
KTA1 140920Z 10011KT M01/M02 A303 RMK A01 T10091021  RH  091%=      5-min Rain = 0
KTA1 140921Z 10011KT M01/M02 A303 RMK A01 T10091022  RH  091%=      5-min Rain = 0
KTA1 140922Z 11010KT M01/M02 A303 RMK A01 T10091022  RH  091%=      5-min Rain = 0
KTA1 140923Z 11009KT M01/M02 A303 RMK A01 T10091021  RH  091%=      5-min Rain = 0
KTA1 140924Z 11011KT M01/M02 A303 RMK A01 T10091021  RH  091%=      5-min Rain = 0
KTA1 140925Z 11010KT M01/M02 A303 RMK A01 T10091021  RH  091%=      5-min Rain = 0
KTA1 140926Z 11010KT M01/M02 A303 RMK A01 T10091022  RH  091%=      5-min Rain = 0
KTA1 140927Z 10009KT M01/M02 A303 RMK A01 T10091021  RH  091%=      5-min Rain = 0
KTA1 140928Z 11009KT M01/M02 A303 RMK A01 T10091022  RH  091%=      5-min Rain = 0
KTA1 140929Z 11011KT M01/M02 A303 RMK A01 T10091021  RH  091%=      5-min Rain = 0
KTA1 140930Z 11009KT M01/M02 A303 RMK A01 T10091021  RH  091%=      5-min Rain = 0
KTA1 140931Z 11008KT M01/M02 A303 RMK A01 T10091021  RH  091%=      5-min Rain = 0
KTA1 140932Z 10008KT M01/M02 A303 RMK A01 T10091021  RH  092%=      5-min Rain = 0
KTA1 140933Z 10009KT M01/M02 A303 RMK A01 T10091020  RH  092%=      5-min Rain = 0
KTA1 140934Z 11010KT M01/M02 A303 RMK A01 T10091021  RH  092%=      5-min Rain = 0
KTA1 140935Z 11009KT M01/M02 A303 RMK A01 T10091021  RH  091%=      5-min Rain = 0
KTA1 140936Z 11009KT M01/M02 A303 RMK A01 T10091021  RH  092%=      5-min Rain = 0
KTA1 140937Z 11010KT M01/M02 A303 RMK A01 T10081021  RH  092%=      5-min Rain = 0
KTA1 140938Z 11010KT M01/M02 A303 RMK A01 T10091021  RH  091%=      5-min Rain = 0
KTA1 140939Z 11009KT M01/M02 A303 RMK A01 T10091021  RH  091%=      5-min Rain = 0
KTA1 140940Z 12009KT M01/M02 A303 RMK A01 T10091021  RH  092%=      5-min Rain = 0
KTA1 140941Z 11007KT M01/M02 A303 RMK A01 T10091021  RH  092%=      5-min Rain = 0
KTA1 140942Z 11008KT M01/M02 A303 RMK A01 T10091020  RH  092%=      5-min Rain = 0
KTA1 140943Z 12008KT M01/M02 A303 RMK A01 T10091020  RH  092%=      5-min Rain = 0
KTA1 140944Z 12010KT M01/M02 A303 RMK A01 T10091020  RH  092%=      5-min Rain = 0
KTA1 140945Z 12009KT M01/M02 A303 RMK A01 T10081020  RH  092%=      5-min Rain = 0
KTA1 140946Z 12009KT M01/M02 A303 RMK A01 T10081020  RH  092%=      5-min Rain = 0
KTA1 140947Z 12008KT M01/M02 A303 RMK A01 T10081020  RH  092%=      5-min Rain = 0
KTA1 140948Z 12009KT M01/M02 A303 RMK A01 T10081020  RH  092%=      5-min Rain = 0
KTA1 140949Z 12009KT M01/M02 A303 RMK A01 T10081020  RH  092%=      5-min Rain = 0
KTA1 140950Z 11009KT M01/M02 A303 RMK A01 T10081020  RH  092%=      5-min Rain = 0
KTA1 140951Z 11009KT M01/M02 A303 RMK A01 T10081020  RH  092%=      5-min Rain = 0
KTA1 140952Z 12008KT M01/M02 A303 RMK A01 T10081020  RH  091%=      5-min Rain = 0
KTA1 140953Z 12009KT M01/M02 A303 RMK A01 T10081021  RH  091%=      5-min Rain = 0
KTA1 140954Z 13008KT M01/M02 A303 RMK A01 T10081021  RH  091%=      5-min Rain = 0
KTA1 140955Z 12007KT M01/M02 A303 RMK A01 T10081020  RH  091%=      5-min Rain = 0
KTA1 140956Z 13011KT M01/M02 A303 RMK A01 T10081020  RH  091%=      5-min Rain = 0
KTA1 140957Z 13010KT M01/M02 A303 RMK A01 T10071020  RH  091%=      5-min Rain = 0
KTA1 140958Z 12010KT M01/M02 A303 RMK A01 T10071020  RH  091%=      5-min Rain = 0
KTA1 140959Z 12010KT M01/M02 A303 RMK A01 T10071021  RH  091%=      5-min Rain = 0
KTA1 141000Z 12011KT M01/M02 A303 RMK A01 T10081021  RH  090%=      5-min Rain = 0
KTA1 141001Z 11008KT M01/M02 A303 RMK A01 T10081021  RH  091%=      5-min Rain = 0
KTA1 141002Z 11009KT M01/M02 A303 RMK A01 T10081021  RH  091%=      5-min Rain = 0
KTA1 141003Z 11008KT M01/M02 A303 RMK A01 T10081021  RH  091%=      5-min Rain = 0
KTA1 141004Z 12007KT M01/M02 A303 RMK A01 T10081021  RH  091%=      5-min Rain = 0
KTA1 141005Z 12007KT M01/M02 A303 RMK A01 T10081020  RH  092%=      5-min Rain = 0
KTA1 141006Z 12008KT M01/M02 A303 RMK A01 T10081020  RH  092%=      5-min Rain = 0
KTA1 141007Z 12009KT M01/M02 A303 RMK A01 T10081020  RH  092%=      5-min Rain = 0
KTA1 141008Z 12009KT M01/M02 A303 RMK A01 T10081021  RH  091%=      5-min Rain = 0
KTA1 141009Z 12011KT M01/M02 A303 RMK A01 T10081021  RH  091%=      5-min Rain = 0
KTA1 141010Z 12008KT M01/M02 A303 RMK A01 T10081021  RH  091%=      5-min Rain = 0
KTA1 141011Z 12009KT M01/M02 A303 RMK A01 T10081021  RH  091%=      5-min Rain = 0
KTA1 141012Z 12011KT M01/M02 A303 RMK A01 T10081021  RH  091%=      5-min Rain = 0
KTA1 141013Z 13011KT M01/M02 A303 RMK A01 T10081021  RH  091%=      5-min Rain = 0
KTA1 141014Z 13013KT M01/M02 A303 RMK A01 T10081022  RH  091%=      5-min Rain = 0
KTA1 141015Z 13014KT M01/M02 A303 RMK A01 T10081023  RH  090%=      5-min Rain = 0
KTA1 141016Z 12014KT M01/M02 A303 RMK A01 T10081023  RH  090%=      5-min Rain = 0
KTA1 141017Z 13015KT M01/M02 A303 RMK A01 T10091023  RH  090%=      5-min Rain = 0
KTA1 141018Z 13014KT M01/M02 A303 RMK A01 T10081023  RH  090%=      5-min Rain = 0
KTA1 141019Z 13013KT M01/M02 A303 RMK A01 T10091023  RH  090%=      5-min Rain = 0
KTA1 141020Z 13013KT M01/M02 A303 RMK A01 T10081023  RH  090%=      5-min Rain = 0
KTA1 141021Z 12010KT M01/M02 A303 RMK A01 T10091023  RH  090%=      5-min Rain = 0
KTA1 141022Z 12010KT M01/M02 A303 RMK A01 T10091022  RH  091%=      5-min Rain = 0
KTA1 141023Z 13013KT M01/M02 A303 RMK A01 T10091022  RH  091%=      5-min Rain = 0
KTA1 141024Z 12013KT M01/M02 A303 RMK A01 T10091022  RH  090%=      5-min Rain = 0
KTA1 141025Z 11009KT M01/M02 A303 RMK A01 T10091022  RH  091%=      5-min Rain = 0
KTA1 141026Z 12010KT M01/M02 A303 RMK A01 T10081021  RH  091%=      5-min Rain = 0
KTA1 141027Z 13012KT M01/M02 A303 RMK A01 T10081021  RH  091%=      5-min Rain = 0
KTA1 141028Z 13012KT M01/M02 A303 RMK A01 T10091022  RH  091%=      5-min Rain = 0
KTA1 141029Z 12012KT M01/M02 A303 RMK A01 T10091022  RH  091%=      5-min Rain = 0
KTA1 141030Z 12011KT M01/M02 A303 RMK A01 T10091022  RH  091%=      5-min Rain = 0
KTA1 141031Z 12010KT M01/M02 A303 RMK A01 T10091022  RH  091%=      5-min Rain = 0
KTA1 141032Z 12009KT M01/M02 A303 RMK A01 T10091022  RH  091%=      5-min Rain = 0
KTA1 141033Z 13009KT M01/M02 A303 RMK A01 T10091022  RH  091%=      5-min Rain = 0
KTA1 141034Z 13010KT M01/M02 A303 RMK A01 T10091021  RH  091%=      5-min Rain = 0
KTA1 141035Z 12010KT M01/M02 A303 RMK A01 T10091021  RH  091%=      5-min Rain = 0
KTA1 141036Z 12010KT M01/M02 A303 RMK A01 T10091021  RH  091%=      5-min Rain = 0
KTA1 141037Z 12012KT M01/M02 A303 RMK A01 T10091021  RH  091%=      5-min Rain = 0
KTA1 141038Z 12013KT M01/M02 A303 RMK A01 T10091022  RH  091%=      5-min Rain = 0
KTA1 141039Z 12011KT M01/M02 A303 RMK A01 T10101023  RH  091%=      5-min Rain = 0
KTA1 141040Z 12010KT M01/M02 A303 RMK A01 T10101022  RH  091%=      5-min Rain = 0
KTA1 141041Z 12011KT M01/M02 A303 RMK A01 T10091022  RH  091%=      5-min Rain = 0
KTA1 141042Z 12012KT M01/M02 A303 RMK A01 T10091022  RH  091%=      5-min Rain = 0
KTA1 141043Z 12011KT M01/M02 A303 RMK A01 T10101022  RH  091%=      5-min Rain = 0
KTA1 141044Z 12011KT M01/M02 A303 RMK A01 T10101022  RH  091%=      5-min Rain = 0
KTA1 141045Z 12011KT M01/M02 A303 RMK A01 T10101022  RH  092%=      5-min Rain = 0
KTA1 141046Z 12010KT M01/M02 A303 RMK A01 T10101022  RH  092%=      5-min Rain = 0
KTA1 141047Z 13009KT M01/M02 A303 RMK A01 T10101022  RH  092%=      5-min Rain = 0
KTA1 141048Z 12010KT M01/M02 A303 RMK A01 T10101021  RH  092%=      5-min Rain = 0
KTA1 141049Z 12009KT M01/M02 A303 RMK A01 T10101022  RH  092%=      5-min Rain = 0
KTA1 141050Z 12008KT M01/M02 A303 RMK A01 T10101021  RH  092%=      5-min Rain = 0
KTA1 141051Z 11009KT M01/M02 A303 RMK A01 T10101021  RH  092%=      5-min Rain = 0
KTA1 141052Z 11011KT M01/M02 A303 RMK A01 T10101021  RH  092%=      5-min Rain = 0
KTA1 141053Z 11011KT M01/M02 A303 RMK A01 T10101022  RH  092%=      5-min Rain = 0
KTA1 141054Z 11009KT M01/M02 A303 RMK A01 T10101022  RH  092%=      5-min Rain = 0
KTA1 141055Z 11012KT M01/M02 A303 RMK A01 T10101022  RH  092%=      5-min Rain = 0
KTA1 141056Z 11012KT M01/M02 A303 RMK A01 T10101021  RH  092%=      5-min Rain = 0
KTA1 141057Z 12012KT M01/M02 A303 RMK A01 T10111022  RH  092%=      5-min Rain = 0
KTA1 141058Z 11011KT M01/M02 A303 RMK A01 T10101022  RH  092%=      5-min Rain = 0
KTA1 141059Z 11012KT M01/M02 A303 RMK A01 T10111022  RH  092%=      5-min Rain = 0
KTA1 141100Z 11012KT M01/M02 A303 RMK A01 T10111022  RH  092%=      5-min Rain = 0
KTA1 141101Z 12010KT M01/M02 A303 RMK A01 T10111022  RH  092%=      5-min Rain = 0
KTA1 141102Z 11011KT M01/M02 A303 RMK A01 T10111022  RH  092%=      5-min Rain = 0
KTA1 141103Z 11010KT M01/M02 A303 RMK A01 T10111022  RH  093%=      5-min Rain = 0
KTA1 141104Z 11012KT M01/M02 A303 RMK A01 T10111021  RH  093%=      5-min Rain = 0
KTA1 141105Z 12011KT M01/M02 A303 RMK A01 T10111022  RH  092%=      5-min Rain = 0
KTA1 141106Z 12011KT M01/M02 A303 RMK A01 T10111022  RH  093%=      5-min Rain = 0
KTA1 141107Z 11011KT M01/M02 A303 RMK A01 T10111022  RH  093%=      5-min Rain = 0
KTA1 141108Z 11012KT M01/M02 A303 RMK A01 T10111021  RH  093%=      5-min Rain = 0
KTA1 141109Z 12010KT M01/M02 A303 RMK A01 T10111022  RH  093%=      5-min Rain = 0
KTA1 141110Z 12011KT M01/M02 A303 RMK A01 T10111021  RH  093%=      5-min Rain = 0
KTA1 141111Z 12010KT M01/M02 A303 RMK A01 T10111021  RH  093%=      5-min Rain = 0
KTA1 141112Z 12011KT M01/M02 A303 RMK A01 T10111021  RH  093%=      5-min Rain = 0
KTA1 141113Z 12011KT M01/M02 A303 RMK A01 T10111021  RH  093%=      5-min Rain = 0
KTA1 141114Z 12009KT M01/M02 A303 RMK A01 T10111021  RH  093%=      5-min Rain = 0
KTA1 141115Z 13011KT M01/M02 A303 RMK A01 T10111021  RH  093%=      5-min Rain = 0
KTA1 141116Z 13010KT M01/M02 A303 RMK A01 T10111021  RH  093%=      5-min Rain = 0
KTA1 141117Z 12010KT M01/M02 A303 RMK A01 T10111021  RH  093%=      5-min Rain = 0
KTA1 141118Z 12009KT M01/M02 A303 RMK A01 T10111021  RH  093%=      5-min Rain = 0
KTA1 141119Z 12009KT M01/M02 A303 RMK A01 T10111021  RH  093%=      5-min Rain = 0
KTA1 141120Z 12009KT M01/M02 A303 RMK A01 T10111021  RH  093%=      5-min Rain = 0
KTA1 141121Z 12008KT M01/M02 A303 RMK A01 T10111021  RH  093%=      5-min Rain = 0
KTA1 141122Z 11007KT M01/M02 A303 RMK A01 T10111021  RH  093%=      5-min Rain = 0
KTA1 141123Z 11008KT M01/M02 A303 RMK A01 T10111021  RH  093%=      5-min Rain = 0
KTA1 141124Z 12009KT M01/M02 A303 RMK A01 T10111021  RH  093%=      5-min Rain = 0
KTA1 141125Z 12008KT M01/M02 A303 RMK A01 T10111021  RH  093%=      5-min Rain = 0
KTA1 141126Z 11008KT M01/M02 A303 RMK A01 T10111021  RH  093%=      5-min Rain = 0
KTA1 141127Z 12007KT M01/M02 A303 RMK A01 T10111021  RH  093%=      5-min Rain = 0
KTA1 141128Z 12010KT M01/M02 A303 RMK A01 T10111020  RH  094%=      5-min Rain = 0
KTA1 141129Z 12009KT M01/M02 A303 RMK A01 T10111021  RH  093%=      5-min Rain = 0
KTA1 141130Z 12008KT M01/M02 A303 RMK A01 T10111021  RH  094%=      5-min Rain = 0
KTA1 141131Z 12008KT M01/M02 A303 RMK A01 T10111020  RH  094%=      5-min Rain = 0
KTA1 141132Z 12009KT M01/M02 A303 RMK A01 T10111020  RH  094%=      5-min Rain = 0
KTA1 141133Z 11007KT M01/M02 A303 RMK A01 T10111020  RH  094%=      5-min Rain = 0
KTA1 141134Z 11008KT M01/M02 A303 RMK A01 T10111020  RH  094%=      5-min Rain = 0
KTA1 141135Z 11009KT M01/M02 A303 RMK A01 T10111020  RH  094%=      5-min Rain = 0
KTA1 141136Z 11009KT M01/M02 A303 RMK A01 T10111020  RH  094%=      5-min Rain = 0
KTA1 141137Z 11009KT M01/M02 A303 RMK A01 T10111020  RH  094%=      5-min Rain = 0
KTA1 141138Z 12008KT M01/M02 A303 RMK A01 T10121020  RH  094%=      5-min Rain = 0
KTA1 141139Z 11007KT M01/M02 A303 RMK A01 T10121020  RH  094%=      5-min Rain = 0
KTA1 141140Z 11006KT M01/M02 A303 RMK A01 T10121020  RH  094%=      5-min Rain = 0
KTA1 141141Z 10008KT M01/M02 A303 RMK A01 T10111020  RH  094%=      5-min Rain = 0
KTA1 141142Z 10008KT M01/M02 A303 RMK A01 T10121021  RH  094%=      5-min Rain = 0
KTA1 141143Z 10008KT M01/M02 A303 RMK A01 T10121021  RH  094%=      5-min Rain = 0
KTA1 141144Z 10008KT M01/M02 A303 RMK A01 T10121021  RH  094%=      5-min Rain = 0
KTA1 141145Z 11008KT M01/M02 A303 RMK A01 T10121021  RH  094%=      5-min Rain = 0
KTA1 141146Z 10009KT M01/M02 A303 RMK A01 T10121021  RH  094%=      5-min Rain = 0
KTA1 141147Z 11008KT M01/M02 A303 RMK A01 T10121021  RH  094%=      5-min Rain = 0
KTA1 141148Z 12006KT M01/M02 A303 RMK A01 T10121020  RH  094%=      5-min Rain = 0
KTA1 141149Z 12006KT M01/M02 A303 RMK A01 T10121019  RH  095%=      5-min Rain = 0
KTA1 141150Z 11006KT M01/M02 A303 RMK A01 T10111019  RH  094%=      5-min Rain = 0
KTA1 141151Z 10006KT M01/M02 A303 RMK A01 T10111019  RH  094%=      5-min Rain = 0
KTA1 141152Z 11006KT M01/M02 A303 RMK A01 T10111019  RH  094%=      5-min Rain = 0
KTA1 141153Z 11007KT M01/M02 A303 RMK A01 T10111019  RH  094%=      5-min Rain = 0
KTA1 141154Z 10007KT M01/M02 A303 RMK A01 T10111020  RH  094%=      5-min Rain = 0
KTA1 141155Z 11006KT M01/M02 A303 RMK A01 T10121020  RH  094%=      5-min Rain = 0
KTA1 141156Z 11008KT M01/M02 A303 RMK A01 T10121020  RH  094%=      5-min Rain = 0
KTA1 141157Z 11009KT M01/M02 A303 RMK A01 T10121020  RH  094%=      5-min Rain = 0
KTA1 141158Z 11008KT M01/M02 A303 RMK A01 T10121020  RH  095%=      5-min Rain = 0
KTA1 141159Z 12007KT M01/M02 A303 RMK A01 T10121020  RH  095%=      5-min Rain = 0
KTA1 141200Z 11007KT M01/M02 A303 RMK A01 T10131020  RH  095%=      5-min Rain = 0
KTA1 141201Z 11008KT M01/M02 A3031 RMK A01 T10121019  RH  095%=      5-min Rain = 0
KTA1 141202Z 11007KT M01/M02 A3031 RMK A01 T10131020  RH  095%=      5-min Rain = 0
KTA1 141203Z 12009KT M01/M02 A3031 RMK A01 T10131020  RH  095%=      5-min Rain = 0
KTA1 141204Z 12009KT M01/M02 A3031 RMK A01 T10131020  RH  095%=      5-min Rain = 0
KTA1 141205Z 10006KT M01/M02 A3031 RMK A01 T10131019  RH  095%=      5-min Rain = 0
KTA1 141206Z 11007KT M01/M02 A3031 RMK A01 T10131020  RH  095%=      5-min Rain = 0
KTA1 141207Z 12006KT M01/M02 A3031 RMK A01 T10131020  RH  095%=      5-min Rain = 0
KTA1 141208Z 12006KT M01/M02 A3031 RMK A01 T10131020  RH  095%=      5-min Rain = 0
KTA1 141209Z 12008KT M01/M02 A3031 RMK A01 T10131019  RH  095%=      5-min Rain = 0
KTA1 141210Z 11008KT M01/M02 A3031 RMK A01 T10131019  RH  096%=      5-min Rain = 0
KTA1 141211Z 11008KT M01/M02 A3031 RMK A01 T10131019  RH  096%=      5-min Rain = 0
KTA1 141212Z 11008KT M01/M02 A3031 RMK A01 T10131018  RH  096%=      5-min Rain = 0
KTA1 141213Z 11009KT M01/M02 A3031 RMK A01 T10131018  RH  096%=      5-min Rain = 0
KTA1 141214Z 11007KT M01/M02 A3031 RMK A01 T10131018  RH  096%=      5-min Rain = 0
KTA1 141215Z 11007KT M01/M02 A3031 RMK A01 T10131019  RH  096%=      5-min Rain = 0
KTA1 141216Z 10007KT M01/M02 A3031 RMK A01 T10131019  RH  096%=      5-min Rain = 0
KTA1 141217Z 10007KT M01/M02 A3031 RMK A01 T10131019  RH  096%=      5-min Rain = 0
KTA1 141218Z 10008KT M01/M02 A3031 RMK A01 T10131019  RH  096%=      5-min Rain = 0
KTA1 141219Z 11009KT M01/M02 A3031 RMK A01 T10131018  RH  096%=      5-min Rain = 0
KTA1 141220Z 11008KT M01/M02 A3031 RMK A01 T10131018  RH  096%=      5-min Rain = 0
KTA1 141221Z 11007KT M01/M02 A3031 RMK A01 T10131018  RH  096%=      5-min Rain = 0
KTA1 141222Z 11009KT M01/M02 A3031 RMK A01 T10131018  RH  097%=      5-min Rain = 0
KTA1 141223Z 12009KT M01/M02 A3031 RMK A01 T10131018  RH  097%=      5-min Rain = 0
KTA1 141224Z 12009KT M01/M02 A3031 RMK A01 T10131017  RH  097%=      5-min Rain = 0
KTA1 141225Z 12007KT M01/M02 A3031 RMK A01 T10131017  RH  097%=      5-min Rain = 0
KTA1 141226Z 11006KT M01/M02 A3031 RMK A01 T10131017  RH  097%=      5-min Rain = 0
KTA1 141227Z 11007KT M01/M02 A3031 RMK A01 T10131017  RH  097%=      5-min Rain = 0
KTA1 141228Z 10007KT M01/M02 A3031 RMK A01 T10131017  RH  097%=      5-min Rain = 0
KTA1 141229Z 10007KT M01/M02 A3031 RMK A01 T10131017  RH  097%=      5-min Rain = 0
KTA1 141230Z 10007KT M01/M02 A3031 RMK A01 T10131017  RH  097%=      5-min Rain = 0
KTA1 141231Z 10006KT M01/M02 A3031 RMK A01 T10131017  RH  097%=      5-min Rain = 0
KTA1 141232Z 10006KT M01/M02 A3031 RMK A01 T10131017  RH  097%=      5-min Rain = 0
KTA1 141233Z 10006KT M01/M02 A3032 RMK A01 T10131017  RH  097%=      5-min Rain = 0
KTA1 141234Z 11006KT M01/M02 A3032 RMK A01 T10131017  RH  097%=      5-min Rain = 0
KTA1 141235Z 11008KT M01/M02 A3032 RMK A01 T10131017  RH  097%=      5-min Rain = 0
KTA1 141236Z 11008KT M01/M02 A3032 RMK A01 T10131017  RH  097%=      5-min Rain = 0
KTA1 141237Z 11008KT M01/M02 A3032 RMK A01 T10131017  RH  097%=      5-min Rain = 0
KTA1 141238Z 11008KT M01/M02 A3032 RMK A01 T10131017  RH  097%=      5-min Rain = 0
KTA1 141239Z 11007KT M01/M02 A3032 RMK A01 T10131017  RH  097%=      5-min Rain = 0
KTA1 141240Z 12007KT M01/M02 A3032 RMK A01 T10131017  RH  097%=      5-min Rain = 0
KTA1 141241Z 11007KT M01/M02 A3032 RMK A01 T10131017  RH  097%=      5-min Rain = 0
KTA1 141242Z 11008KT M01/M02 A3032 RMK A01 T10141018  RH  097%=      5-min Rain = 0
KTA1 141243Z 11008KT M01/M02 A3032 RMK A01 T10141018  RH  097%=      5-min Rain = 0
KTA1 141244Z 11009KT M01/M02 A3032 RMK A01 T10131017  RH  097%=      5-min Rain = 0
KTA1 141245Z 11007KT M01/M02 A3032 RMK A01 T10141017  RH  097%=      5-min Rain = 0
KTA1 141246Z 11007KT M01/M02 A3032 RMK A01 T10141017  RH  098%=      5-min Rain = 0
KTA1 141247Z 11007KT M01/M02 A3032 RMK A01 T10131017  RH  098%=      5-min Rain = 0
KTA1 141248Z 11007KT M01/M02 A3032 RMK A01 T10131017  RH  098%=      5-min Rain = 0
KTA1 141249Z 11007KT M01/M02 A3032 RMK A01 T10141017  RH  098%=      5-min Rain = 0
KTA1 141250Z 11007KT M01/M02 A3032 RMK A01 T10141016  RH  098%=      5-min Rain = 0
KTA1 141251Z 11008KT M01/M02 A3032 RMK A01 T10131016  RH  098%=      5-min Rain = 0
KTA1 141252Z 10007KT M01/M02 A3032 RMK A01 T10141016  RH  098%=      5-min Rain = 0
KTA1 141253Z 11008KT M01/M02 A3032 RMK A01 T10131016  RH  098%=      5-min Rain = 0
KTA1 141254Z 10006KT M01/M02 A3032 RMK A01 T10131016  RH  098%=      5-min Rain = 0
KTA1 141255Z 11008KT M01/M02 A3032 RMK A01 T10131016  RH  098%=      5-min Rain = 0
KTA1 141256Z 12008KT M01/M02 A3032 RMK A01 T10131016  RH  098%=      5-min Rain = 0
KTA1 141257Z 12008KT M01/M02 A3032 RMK A01 T10131016  RH  098%=      5-min Rain = 0
KTA1 141258Z 12007KT M01/M02 A3032 RMK A01 T10131016  RH  098%=      5-min Rain = 0
KTA1 141259Z 12008KT M01/M02 A3032 RMK A01 T10131016  RH  098%=      5-min Rain = 0
KTA1 141300Z 11007KT M01/M02 A3032 RMK A01 T10131015  RH  098%=      5-min Rain = 0
KTA1 141301Z 11008KT M01/M02 A3032 RMK A01 T10131015  RH  098%=      5-min Rain = 0
KTA1 141302Z 10007KT M01/M02 A3032 RMK A01 T10131015  RH  098%=      5-min Rain = 0
KTA1 141303Z 10007KT M01/M02 A3032 RMK A01 T10131015  RH  099%=      5-min Rain = 0
KTA1 141304Z 10006KT M01/M02 A3032 RMK A01 T10131015  RH  099%=      5-min Rain = 0
KTA1 141305Z 10008KT M01/M02 A3032 RMK A01 T10131015  RH  099%=      5-min Rain = 0
KTA1 141306Z 09008KT M01/M02 A3032 RMK A01 T10131015  RH  099%=      5-min Rain = 0
KTA1 141307Z 10007KT M01/M02 A3032 RMK A01 T10141015  RH  099%=      5-min Rain = 0
KTA1 141308Z 11008KT M01/M02 A3032 RMK A01 T10131015  RH  099%=      5-min Rain = 0
KTA1 141309Z 11007KT M01/M02 A3032 RMK A01 T10141015  RH  099%=      5-min Rain = 0
KTA1 141310Z 11008KT M01/M02 A3032 RMK A01 T10141015  RH  099%=      5-min Rain = 0
KTA1 141311Z 11007KT M01/M02 A3032 RMK A01 T10141015  RH  099%=      5-min Rain = 0
KTA1 141312Z 10007KT M01/M02 A3032 RMK A01 T10141015  RH  099%=      5-min Rain = 0
KTA1 141313Z 10007KT M01/M01 A3032 RMK A01 T10131014  RH  099%=      5-min Rain = 0
KTA1 141314Z 10007KT M01/M01 A3032 RMK A01 T10131014  RH  099%=      5-min Rain = 0
KTA1 141315Z 10009KT M01/M02 A3032 RMK A01 T10141015  RH  099%=      5-min Rain = 0
KTA1 141316Z 10007KT M01/M01 A3032 RMK A01 T10131014  RH  099%=      5-min Rain = 0
KTA1 141317Z 11007KT M01/M02 A3032 RMK A01 T10141015  RH  099%=      5-min Rain = 0
KTA1 141318Z 10007KT M01/M01 A3032 RMK A01 T10141014  RH  099%=      5-min Rain = 0
KTA1 141319Z 10006KT M01/M01 A3032 RMK A01 T10141014  RH  099%=      5-min Rain = 0
KTA1 141320Z 12007KT M01/M01 A3032 RMK A01 T10141014  RH  100%=      5-min Rain = 0
KTA1 141321Z 11008KT M01/M01 A3032 RMK A01 T10141014  RH  100%=      5-min Rain = 0
KTA1 141322Z 11006KT M01/M01 A3032 RMK A01 T10141014  RH  100%=      5-min Rain = 0
KTA1 141323Z 11007KT M01/M01 A3032 RMK A01 T10131014  RH  100%=      5-min Rain = 0
KTA1 141324Z 10008KT M01/M01 A3032 RMK A01 T10131014  RH  100%=      5-min Rain = 0
KTA1 141325Z 11007KT M01/M01 A3032 RMK A01 T10131014  RH  100%=      5-min Rain = 0
KTA1 141326Z 11009KT M01/M01 A3032 RMK A01 T10131014  RH  100%=      5-min Rain = 0
KTA1 141327Z 11008KT M01/M01 A3032 RMK A01 T10131014  RH  100%=      5-min Rain = 0
KTA1 141328Z 11009KT M01/M01 A3032 RMK A01 T10131014  RH  100%=      5-min Rain = 0
KTA1 141329Z 11008KT M01/M01 A3032 RMK A01 T10141014  RH  100%=      5-min Rain = 0
KTA1 141330Z 11008KT M01/M01 A3032 RMK A01 T10141014  RH  100%=      5-min Rain = 0
KTA1 141331Z 10007KT M01/M01 A3032 RMK A01 T10141014  RH  100%=      5-min Rain = 0
KTA1 141332Z 11006KT M01/M01 A3032 RMK A01 T10141014  RH  100%=      5-min Rain = 0
KTA1 141333Z 11009KT M01/M01 A3032 RMK A01 T10131014  RH  100%=      5-min Rain = 0
KTA1 141334Z 11009KT M01/M01 A3032 RMK A01 T10131013  RH  100%=      5-min Rain = 0
KTA1 141335Z 11008KT M01/M01 A3032 RMK A01 T10141014  RH  100%=      5-min Rain = 0
KTA1 141336Z 10008KT M01/M01 A3032 RMK A01 T10141014  RH  100%=      5-min Rain = 0
KTA1 141337Z 11008KT M01/M01 A3032 RMK A01 T10141014  RH  100%=      5-min Rain = 0
KTA1 141338Z 11007KT M01/M01 A3032 RMK A01 T10141014  RH  100%=      5-min Rain = 0
KTA1 141339Z 11008KT M01/M01 A3032 RMK A01 T10131014  RH  100%=      5-min Rain = 0
KTA1 141340Z 12009KT M01/M01 A3032 RMK A01 T10131013  RH  100%=      5-min Rain = 0
KTA1 141341Z 11007KT M01/M01 A3032 RMK A01 T10131013  RH  100%=      5-min Rain = 0
KTA1 141342Z 10009KT M01/M01 A3032 RMK A01 T10131013  RH  100%=      5-min Rain = 0
KTA1 141343Z 11009KT M01/M01 A3032 RMK A01 T10131013  RH  100%=      5-min Rain = 0
KTA1 141344Z 11008KT M01/M01 A3032 RMK A01 T10131013  RH  100%=      5-min Rain = 0
KTA1 141345Z 11008KT M01/M01 A3032 RMK A01 T10131013  RH  100%=      5-min Rain = 0
KTA1 141346Z 11007KT M01/M01 A3032 RMK A01 T10131013  RH  100%=      5-min Rain = 0
KTA1 141347Z 11006KT M01/M01 A3032 RMK A01 T10131013  RH  100%=      5-min Rain = 0
KTA1 141348Z 10006KT M01/M01 A3032 RMK A01 T10121012  RH  100%=      5-min Rain = 0
KTA1 141349Z 11007KT M01/M01 A3032 RMK A01 T10121012  RH  100%=      5-min Rain = 0
KTA1 141350Z 12007KT M01/M01 A3032 RMK A01 T10121012  RH  100%=      5-min Rain = 0
KTA1 141351Z 11007KT M01/M01 A3032 RMK A01 T10111011  RH  100%=      5-min Rain = 0
KTA1 141352Z 11009KT M01/M01 A3032 RMK A01 T10111011  RH  100%=      5-min Rain = 0
KTA1 141353Z 11010KT M01/M01 A3032 RMK A01 T10111011  RH  100%=      5-min Rain = 0
KTA1 141354Z 11008KT M01/M01 A3032 RMK A01 T10111011  RH  100%=      5-min Rain = 0
KTA1 141355Z 11008KT M01/M01 A3032 RMK A01 T10111011  RH  100%=      5-min Rain = 0
KTA1 141356Z 11009KT M01/M01 A3032 RMK A01 T10111011  RH  100%=      5-min Rain = 0
KTA1 141357Z 11009KT M01/M01 A3032 RMK A01 T10111011  RH  100%=      5-min Rain = 0
KTA1 141358Z 10008KT M01/M01 A3032 RMK A01 T10111011  RH  100%=      5-min Rain = 0
KTA1 141359Z 10008KT M01/M01 A3032 RMK A01 T10101011  RH  100%=      5-min Rain = 0
KTA1 141400Z 11010KT M01/M01 A3032 RMK A01 T10101010  RH  100%=      5-min Rain = 0
KTA1 141401Z 11010KT M01/M01 A3032 RMK A01 T10101011  RH  100%=      5-min Rain = 0
KTA1 141402Z 11010KT M01/M01 A3032 RMK A01 T10101011  RH  100%=      5-min Rain = 0
KTA1 141403Z 11009KT M01/M01 A3032 RMK A01 T10111011  RH  100%=      5-min Rain = 0
KTA1 141404Z 11008KT M01/M01 A3032 RMK A01 T10111011  RH  100%=      5-min Rain = 0
KTA1 141405Z 12008KT M01/M01 A3032 RMK A01 T10111011  RH  100%=      5-min Rain = 0
KTA1 141406Z 11005KT M01/M01 A3032 RMK A01 T10101011  RH  100%=      5-min Rain = 0
KTA1 141407Z 11007KT M01/M01 A3032 RMK A01 T10101010  RH  100%=      5-min Rain = 0
KTA1 141408Z 11008KT M01/M01 A3032 RMK A01 T10091010  RH  100%=      5-min Rain = 0
KTA1 141409Z 11008KT M01/M01 A3032 RMK A01 T10091010  RH  100%=      5-min Rain = 0
KTA1 141410Z 11008KT M01/M01 A3032 RMK A01 T10101010  RH  099%=      5-min Rain = 0
KTA1 141411Z 12007KT M01/M01 A3032 RMK A01 T10091010  RH  099%=      5-min Rain = 0
KTA1 141412Z 10007KT M01/M01 A3032 RMK A01 T10091010  RH  099%=      5-min Rain = 0
KTA1 141413Z 10007KT M01/M01 A3032 RMK A01 T10101011  RH  099%=      5-min Rain = 0
KTA1 141414Z 10009KT M01/M01 A3032 RMK A01 T10101011  RH  099%=      5-min Rain = 0
KTA1 141415Z 10008KT M01/M01 A3032 RMK A01 T10101011  RH  099%=      5-min Rain = 0
KTA1 141416Z 10009KT M01/M01 A3032 RMK A01 T10111012  RH  099%=      5-min Rain = 0
KTA1 141417Z 10008KT M01/M01 A3032 RMK A01 T10111012  RH  099%=      5-min Rain = 0
KTA1 141418Z 10008KT M01/M01 A3032 RMK A01 T10111012  RH  099%=      5-min Rain = 0
KTA1 141419Z 09007KT M01/M01 A3032 RMK A01 T10111012  RH  100%=      5-min Rain = 0
KTA1 141420Z 09008KT M01/M01 A3032 RMK A01 T10111012  RH  100%=      5-min Rain = 0
KTA1 141421Z 10008KT M01/M01 A3032 RMK A01 T10111011  RH  100%=      5-min Rain = 0
KTA1 141422Z 10008KT M01/M01 A3032 RMK A01 T10111011  RH  100%=      5-min Rain = 0
KTA1 141423Z 10008KT M01/M01 A3032 RMK A01 T10101011  RH  100%=      5-min Rain = 0
KTA1 141424Z 10008KT M01/M01 A3032 RMK A01 T10101010  RH  100%=      5-min Rain = 0
KTA1 141425Z 10008KT M01/M01 A3032 RMK A01 T10101010  RH  100%=      5-min Rain = 0
KTA1 141426Z 11009KT M01/M01 A3032 RMK A01 T10101010  RH  100%=      5-min Rain = 0
KTA1 141427Z 11009KT M01/M01 A3032 RMK A01 T10101011  RH  100%=      5-min Rain = 0
KTA1 141428Z 11010KT M01/M01 A3032 RMK A01 T10101010  RH  100%=      5-min Rain = 0
KTA1 141429Z 10009KT M01/M01 A3032 RMK A01 T10101010  RH  100%=      5-min Rain = 0
KTA1 141430Z 11008KT M01/M01 A3032 RMK A01 T10101010  RH  100%=      5-min Rain = 0
KTA1 141431Z 10006KT M01/M01 A3032 RMK A01 T10101010  RH  100%=      5-min Rain = 0
KTA1 141432Z 10008KT M01/M01 A3032 RMK A01 T10101010  RH  100%=      5-min Rain = 0
KTA1 141433Z 10007KT M01/M01 A3032 RMK A01 T10101010  RH  100%=      5-min Rain = 0
KTA1 141434Z 11008KT M01/M01 A3032 RMK A01 T10101010  RH  100%=      5-min Rain = 0
KTA1 141435Z 10008KT M01/M01 A3032 RMK A01 T10101010  RH  099%=      5-min Rain = 0
KTA1 141436Z 11009KT M01/M01 A3032 RMK A01 T10091010  RH  099%=      5-min Rain = 0
KTA1 141437Z 11008KT M01/M01 A3032 RMK A01 T10091010  RH  099%=      5-min Rain = 0
KTA1 141438Z 11008KT M01/M01 A3032 RMK A01 T10091010  RH  099%=      5-min Rain = 0
KTA1 141439Z 11007KT M01/M01 A3032 RMK A01 T10081010  RH  099%=      5-min Rain = 0
KTA1 141440Z 11007KT M01/M01 A3032 RMK A01 T10091010  RH  099%=      5-min Rain = 0
KTA1 141441Z 10009KT M01/M01 A3032 RMK A01 T10081009  RH  099%=      5-min Rain = 0
KTA1 141442Z 10010KT M01/M01 A3032 RMK A01 T10081010  RH  099%=      5-min Rain = 0
KTA1 141443Z 11010KT M01/M01 A3032 RMK A01 T10081010  RH  099%=      5-min Rain = 0
KTA1 141444Z 10008KT M01/M01 A3032 RMK A01 T10091010  RH  099%=      5-min Rain = 0
KTA1 141445Z 11006KT M01/M01 A3032 RMK A01 T10081009  RH  099%=      5-min Rain = 0
KTA1 141446Z 11008KT M01/M01 A3032 RMK A01 T10081008  RH  100%=      5-min Rain = 0
KTA1 141447Z 10010KT M01/M01 A3032 RMK A01 T10081008  RH  100%=      5-min Rain = 0
KTA1 141448Z 11009KT M01/M01 A3032 RMK A01 T10081009  RH  099%=      5-min Rain = 0
KTA1 141449Z 11009KT M01/M01 A3033 RMK A01 T10081008  RH  100%=      5-min Rain = 0
KTA1 141450Z 11009KT M01/M01 A3032 RMK A01 T10081008  RH  100%=      5-min Rain = 0
KTA1 141451Z 11008KT M01/M01 A3033 RMK A01 T10081008  RH  100%=      5-min Rain = 0
KTA1 141452Z 11008KT M01/M01 A3032 RMK A01 T10081008  RH  100%=      5-min Rain = 0
KTA1 141453Z 11008KT M01/M01 A3032 RMK A01 T10071008  RH  100%=      5-min Rain = 0
KTA1 141454Z 11008KT M01/M01 A3032 RMK A01 T10071007  RH  100%=      5-min Rain = 0
KTA1 141455Z 12009KT M01/M01 A3032 RMK A01 T10071007  RH  100%=      5-min Rain = 0
KTA1 141456Z 11007KT M01/M01 A3032 RMK A01 T10071007  RH  100%=      5-min Rain = 0
KTA1 141457Z 11008KT M01/M01 A3032 RMK A01 T10071007  RH  100%=      5-min Rain = 0
KTA1 141458Z 10007KT M01/M01 A3032 RMK A01 T10071007  RH  100%=      5-min Rain = 0
KTA1 141459Z 10008KT M01/M01 A3032 RMK A01 T10071007  RH  100%=      5-min Rain = 0
KTA1 141500Z 11008KT M01/M01 A3032 RMK A01 T10071007  RH  100%=      5-min Rain = 0
KTA1 141501Z 11008KT M01/M01 A3032 RMK A01 T10071007  RH  100%=      5-min Rain = 0
KTA1 141502Z 11007KT M01/M01 A3032 RMK A01 T10071007  RH  100%=      5-min Rain = 0
KTA1 141503Z 12008KT M01/M01 A3032 RMK A01 T10071007  RH  100%=      5-min Rain = 0
KTA1 141504Z 11008KT M01/M01 A3032 RMK A01 T10071007  RH  100%=      5-min Rain = 0
KTA1 141505Z 10009KT M01/M01 A3032 RMK A01 T10071007  RH  100%=      5-min Rain = 0
KTA1 141506Z 11008KT M01/M01 A3032 RMK A01 T10071008  RH  100%=      5-min Rain = 0
KTA1 141507Z 10009KT M01/M01 A3032 RMK A01 T10071008  RH  100%=      5-min Rain = 0
KTA1 141508Z 10008KT M01/M01 A3032 RMK A01 T10071007  RH  100%=      5-min Rain = 0
KTA1 141509Z 10009KT M01/M01 A3032 RMK A01 T10071007  RH  100%=      5-min Rain = 0
KTA1 141510Z 11010KT M01/M01 A3032 RMK A01 T10071007  RH  100%=      5-min Rain = 0
KTA1 141511Z 12010KT M01/M01 A3032 RMK A01 T10071007  RH  100%=      5-min Rain = 0
KTA1 141512Z 12010KT M01/M01 A3032 RMK A01 T10061007  RH  100%=      5-min Rain = 0
KTA1 141513Z 12009KT M01/M01 A3032 RMK A01 T10061007  RH  100%=      5-min Rain = 0
KTA1 141514Z 11009KT M01/M01 A3032 RMK A01 T10061006  RH  100%=      5-min Rain = 0
KTA1 141515Z 11010KT M01/M01 A3032 RMK A01 T10061006  RH  100%=      5-min Rain = 0
KTA1 141516Z 12010KT M01/M01 A3032 RMK A01 T10061006  RH  100%=      5-min Rain = 0
KTA1 141517Z 12008KT M01/M01 A3032 RMK A01 T10061007  RH  100%=      5-min Rain = 0
KTA1 141518Z 13009KT M01/M01 A3032 RMK A01 T10061006  RH  100%=      5-min Rain = 0
KTA1 141519Z 13010KT M01/M01 A3032 RMK A01 T10051005  RH  100%=      5-min Rain = 0
KTA1 141520Z 13009KT M01/M01 A3032 RMK A01 T10051005  RH  100%=      5-min Rain = 0
KTA1 141521Z 13008KT M01/M01 A3032 RMK A01 T10051005  RH  100%=      5-min Rain = 0
KTA1 141522Z 12008KT M00/M00 A3032 RMK A01 T10041004  RH  100%=      5-min Rain = 0
KTA1 141523Z 12008KT M00/M01 A3033 RMK A01 T10041005  RH  099%=      5-min Rain = 0
KTA1 141524Z 12007KT M01/M01 A3033 RMK A01 T10051006  RH  099%=      5-min Rain = 0
KTA1 141525Z 11008KT M01/M01 A3033 RMK A01 T10051006  RH  099%=      5-min Rain = 0
KTA1 141526Z 12009KT M01/M01 A3033 RMK A01 T10051006  RH  099%=      5-min Rain = 0
KTA1 141527Z 11009KT M01/M01 A3033 RMK A01 T10051006  RH  099%=      5-min Rain = 0
KTA1 141528Z 11009KT M01/M01 A3033 RMK A01 T10061007  RH  099%=      5-min Rain = 0
KTA1 141529Z 12008KT M01/M01 A3033 RMK A01 T10051006  RH  099%=      5-min Rain = 0
KTA1 141530Z 11008KT M01/M01 A3033 RMK A01 T10051006  RH  100%=      5-min Rain = 0
KTA1 141531Z 11009KT M01/M01 A3033 RMK A01 T10051006  RH  100%=      5-min Rain = 0
KTA1 141532Z 11009KT M01/M01 A3033 RMK A01 T10051006  RH  099%=      5-min Rain = 0
KTA1 141533Z 12008KT M01/M01 A3033 RMK A01 T10051006  RH  099%=      5-min Rain = 0
KTA1 141534Z 12009KT M01/M01 A3033 RMK A01 T10051005  RH  100%=      5-min Rain = 0
KTA1 141535Z 12008KT M00/M01 A3033 RMK A01 T10041005  RH  100%=      5-min Rain = 0
KTA1 141536Z 12010KT M00/M01 A3033 RMK A01 T10041005  RH  100%=      5-min Rain = 0
KTA1 141537Z 12010KT M00/M01 A3033 RMK A01 T10041005  RH  099%=      5-min Rain = 0
KTA1 141538Z 13009KT M00/M01 A3033 RMK A01 T10041005  RH  099%=      5-min Rain = 0
KTA1 141539Z 14008KT M00/M01 A3033 RMK A01 T10041005  RH  099%=      5-min Rain = 0
KTA1 141540Z 14008KT M00/M01 A3033 RMK A01 T10041005  RH  100%=      5-min Rain = 0
KTA1 141541Z 13009KT M00/M00 A3033 RMK A01 T10041004  RH  100%=      5-min Rain = 0
KTA1 141542Z 14008KT M00/M00 A3033 RMK A01 T10041004  RH  100%=      5-min Rain = 0
KTA1 141543Z 14009KT M00/M00 A3033 RMK A01 T10041004  RH  100%=      5-min Rain = 0
KTA1 141544Z 14008KT M00/M00 A3033 RMK A01 T10041004  RH  100%=      5-min Rain = 0
KTA1 141545Z 13008KT M00/M00 A3033 RMK A01 T10041004  RH  100%=      5-min Rain = 0
KTA1 141546Z 13008KT M00/M00 A3033 RMK A01 T10031003  RH  100%=      5-min Rain = 0
KTA1 141547Z 14008KT M00/M00 A3033 RMK A01 T10031003  RH  100%=      5-min Rain = 0
KTA1 141548Z 13007KT M00/M00 A3033 RMK A01 T10031003  RH  100%=      5-min Rain = 0
KTA1 141549Z 12008KT M00/M00 A3033 RMK A01 T10021002  RH  100%=      5-min Rain = 0
KTA1 141550Z 13008KT M00/M00 A3033 RMK A01 T10021002  RH  100%=      5-min Rain = 0
KTA1 141551Z 13009KT M00/M00 A3033 RMK A01 T10021002  RH  100%=      5-min Rain = 0
KTA1 141552Z 12009KT M00/M00 A3033 RMK A01 T10031003  RH  100%=      5-min Rain = 0
KTA1 141553Z 14009KT M00/M00 A3033 RMK A01 T10031003  RH  100%=      5-min Rain = 0
KTA1 141554Z 13008KT M00/M00 A3033 RMK A01 T10031003  RH  100%=      5-min Rain = 0
KTA1 141555Z 12010KT M00/M00 A3033 RMK A01 T10031003  RH  100%=      5-min Rain = 0
KTA1 141556Z 12010KT M00/M00 A3033 RMK A01 T10031003  RH  100%=      5-min Rain = 0
KTA1 141557Z 12009KT M00/M00 A3033 RMK A01 T10031003  RH  100%=      5-min Rain = 0
KTA1 141558Z 12007KT M00/M00 A3033 RMK A01 T10031003  RH  100%=      5-min Rain = 0
KTA1 141559Z 13007KT M00/M00 A3034 RMK A01 T10021002  RH  100%=      5-min Rain = 0
KTA1 141600Z 13008KT M00/M00 A3034 RMK A01 T10011002  RH  100%=      5-min Rain = 0
KTA1 141601Z 13007KT M00/M00 A3034 RMK A01 T10011001  RH  100%=      5-min Rain = 0
KTA1 141602Z 13007KT M00/M00 A3034 RMK A01 T10011002  RH  100%=      5-min Rain = 0
KTA1 141603Z 14008KT M00/M00 A3033 RMK A01 T10011001  RH  100%=      5-min Rain = 0
KTA1 141604Z 14008KT M00/M00 A3033 RMK A01 T10011001  RH  100%=      5-min Rain = 0
KTA1 141605Z 14008KT M00/M00 A3033 RMK A01 T10011001  RH  100%=      5-min Rain = 0
KTA1 141606Z 15009KT M00/M00 A3033 RMK A01 T10011001  RH  100%=      5-min Rain = 0
KTA1 141607Z 14008KT M00/M00 A3033 RMK A01 T10011001  RH  100%=      5-min Rain = 0
KTA1 141608Z 13009KT M00/M00 A3033 RMK A01 T10021002  RH  100%=      5-min Rain = 0
KTA1 141609Z 14010KT M00/M00 A3034 RMK A01 T10011001  RH  100%=      5-min Rain = 0
KTA1 141610Z 13009KT M00/M00 A3034 RMK A01 T10011001  RH  100%=      5-min Rain = 0
KTA1 141611Z 14009KT M00/M00 A3034 RMK A01 T10011001  RH  100%=      5-min Rain = 0
KTA1 141612Z 14008KT M00/M00 A3034 RMK A01 T10011001  RH  100%=      5-min Rain = 0
KTA1 141613Z 14006KT M00/M00 A3034 RMK A01 T10011001  RH  100%=      5-min Rain = 0
KTA1 141614Z 14008KT M00/M00 A3033 RMK A01 T10011001  RH  100%=      5-min Rain = 0
KTA1 141615Z 14008KT M00/M00 A3033 RMK A01 T10011001  RH  100%=      5-min Rain = 0
KTA1 141616Z 13009KT M00/M00 A3033 RMK A01 T10011001  RH  100%=      5-min Rain = 0
KTA1 141617Z 13010KT M00/M00 A3033 RMK A01 T10011001  RH  100%=      5-min Rain = 0
KTA1 141618Z 12008KT M00/M00 A3033 RMK A01 T10011001  RH  100%=      5-min Rain = 0
KTA1 141619Z 12008KT M00/M00 A3033 RMK A01 T10011001  RH  100%=      5-min Rain = 0
KTA1 141620Z 13008KT 00/00 A3033 RMK A01 T00-000-0  RH  100%=      5-min Rain = 0
KTA1 141621Z 13007KT M00/M00 A3033 RMK A01 T10011001  RH  100%=      5-min Rain = 0
KTA1 141622Z 12007KT M00/M00 A3033 RMK A01 T10011001  RH  100%=      5-min Rain = 0
KTA1 141623Z 12010KT 00/00 A3033 RMK A01 T000000-0  RH  100%=      5-min Rain = 0
KTA1 141624Z 13009KT 00/00 A3033 RMK A01 T00-000-0  RH  100%=      5-min Rain = 0
KTA1 141625Z 13008KT 00/00 A3033 RMK A01 T00-000-0  RH  100%=      5-min Rain = 0
KTA1 141626Z 13007KT 00/00 A3033 RMK A01 T00-000-0  RH  100%=      5-min Rain = 0
KTA1 141627Z 12008KT 00/00 A3033 RMK A01 T00-000-0  RH  100%=      5-min Rain = 0
KTA1 141628Z 12009KT 00/00 A3033 RMK A01 T00010001  RH  100%=      5-min Rain = 0
KTA1 141629Z 12008KT 00/00 A3033 RMK A01 T00-000-0  RH  100%=      5-min Rain = 0
KTA1 141630Z 11008KT 00/00 A3033 RMK A01 T00-000-0  RH  100%=      5-min Rain = 0
KTA1 141631Z 12007KT 00/00 A3033 RMK A01 T00-000-0  RH  100%=      5-min Rain = 0
KTA1 141632Z 12007KT 00/00 A3033 RMK A01 T00-000-0  RH  100%=      5-min Rain = 0
KTA1 141633Z 12009KT 00/00 A3033 RMK A01 T00000000  RH  100%=      5-min Rain = 0
KTA1 141634Z 12009KT 00/00 A3033 RMK A01 T00000000  RH  100%=      5-min Rain = 0
KTA1 141635Z 12007KT 00/00 A3033 RMK A01 T00-000-0  RH  100%=      5-min Rain = 0
KTA1 141636Z 12009KT 00/00 A3033 RMK A01 T00-000-0  RH  100%=      5-min Rain = 0
KTA1 141637Z 13009KT 00/00 A3033 RMK A01 T00000000  RH  100%=      5-min Rain = 0
KTA1 141638Z 14007KT 00/00 A3033 RMK A01 T00000000  RH  100%=      5-min Rain = 0
KTA1 141639Z 13007KT 00/00 A3033 RMK A01 T00000000  RH  100%=      5-min Rain = 0
KTA1 141640Z 13007KT 00/00 A3033 RMK A01 T00000000  RH  100%=      5-min Rain = 0
KTA1 141641Z 12007KT 00/00 A3033 RMK A01 T00010001  RH  100%=      5-min Rain = 0
KTA1 141642Z 12007KT 00/00 A3033 RMK A01 T00010001  RH  100%=      5-min Rain = 0
KTA1 141643Z 13008KT 00/00 A3033 RMK A01 T00020002  RH  100%=      5-min Rain = 0
KTA1 141644Z 12007KT 00/00 A3033 RMK A01 T00010001  RH  100%=      5-min Rain = 0
KTA1 141645Z 12008KT 00/00 A3033 RMK A01 T00010001  RH  100%=      5-min Rain = 0
KTA1 141646Z 11008KT 00/00 A3033 RMK A01 T00010000  RH  100%=      5-min Rain = 0
KTA1 141647Z 12008KT 00/00 A3033 RMK A01 T00010000  RH  100%=      5-min Rain = 0
KTA1 141648Z 13009KT 00/00 A3033 RMK A01 T00010001  RH  100%=      5-min Rain = 0
KTA1 141649Z 13008KT 00/00 A3033 RMK A01 T00010001  RH  100%=      5-min Rain = 0
KTA1 141650Z 13007KT 00/00 A3033 RMK A01 T00010001  RH  100%=      5-min Rain = 0
KTA1 141651Z 13007KT 00/00 A3033 RMK A01 T00010001  RH  100%=      5-min Rain = 0
KTA1 141652Z 13007KT 00/00 A3033 RMK A01 T00020002  RH  100%=      5-min Rain = 0
KTA1 141653Z 13006KT 00/00 A3033 RMK A01 T00020002  RH  100%=      5-min Rain = 0
KTA1 141654Z 13005KT 00/00 A3033 RMK A01 T00010001  RH  100%=      5-min Rain = 0
KTA1 141655Z 14006KT 00/00 A3033 RMK A01 T00010001  RH  100%=      5-min Rain = 0
KTA1 141656Z 14006KT 00/00 A3033 RMK A01 T00020002  RH  100%=      5-min Rain = 0
KTA1 141657Z 13006KT 00/00 A3033 RMK A01 T00020002  RH  100%=      5-min Rain = 0
KTA1 141658Z 11006KT 00/00 A3033 RMK A01 T00030003  RH  100%=      5-min Rain = 0
KTA1 141659Z 13007KT 00/00 A3032 RMK A01 T00020002  RH  100%=      5-min Rain = 0
KTA1 141700Z 12008KT 00/00 A3032 RMK A01 T00030003  RH  100%=      5-min Rain = 0
KTA1 141701Z 12008KT 00/00 A3032 RMK A01 T00030003  RH  100%=      5-min Rain = 0
KTA1 141702Z 12009KT 00/00 A3032 RMK A01 T00020002  RH  100%=      5-min Rain = 0
KTA1 141703Z 12008KT 00/00 A3032 RMK A01 T00020002  RH  100%=      5-min Rain = 0
KTA1 141704Z 12008KT 00/00 A3033 RMK A01 T00020002  RH  100%=      5-min Rain = 0
KTA1 141705Z 12010KT 00/00 A3033 RMK A01 T00030003  RH  100%=      5-min Rain = 0
KTA1 141706Z 13009KT 00/00 A3032 RMK A01 T00030003  RH  100%=      5-min Rain = 0
KTA1 141707Z 13010KT 00/00 A3032 RMK A01 T00040004  RH  100%=      5-min Rain = 0
KTA1 141708Z 13009KT 00/00 A3032 RMK A01 T00040004  RH  100%=      5-min Rain = 0
KTA1 141709Z 13008KT 00/00 A3032 RMK A01 T00040004  RH  100%=      5-min Rain = 0
KTA1 141710Z 14008KT 00/00 A3032 RMK A01 T00040004  RH  100%=      5-min Rain = 0
KTA1 141711Z 14008KT 00/00 A3033 RMK A01 T00040004  RH  100%=      5-min Rain = 0
KTA1 141712Z 12008KT 00/00 A3033 RMK A01 T00040004  RH  100%=      5-min Rain = 0
KTA1 141713Z 13008KT 00/00 A3033 RMK A01 T00040004  RH  100%=      5-min Rain = 0
KTA1 141714Z 14009KT 01/01 A3032 RMK A01 T00050005  RH  100%=      5-min Rain = 0
KTA1 141715Z 14009KT 01/01 A3032 RMK A01 T00050005  RH  100%=      5-min Rain = 0
KTA1 141716Z 14007KT 01/00 A3032 RMK A01 T00050004  RH  100%=      5-min Rain = 0
KTA1 141717Z 15007KT 01/01 A3032 RMK A01 T00050005  RH  100%=      5-min Rain = 0
KTA1 141718Z 14007KT 01/01 A3032 RMK A01 T00050005  RH  100%=      5-min Rain = 0
KTA1 141719Z 13008KT 01/01 A3032 RMK A01 T00060006  RH  100%=      5-min Rain = 0
KTA1 141720Z 12008KT 01/01 A3032 RMK A01 T00060006  RH  100%=      5-min Rain = 0
KTA1 141721Z 13008KT 01/01 A3032 RMK A01 T00060006  RH  100%=      5-min Rain = 0
KTA1 141722Z 13007KT 01/01 A3032 RMK A01 T00050005  RH  100%=      5-min Rain = 0
KTA1 141723Z 12007KT 01/01 A3032 RMK A01 T00050005  RH  100%=      5-min Rain = 0
KTA1 141724Z 13008KT 01/01 A3032 RMK A01 T00060006  RH  100%=      5-min Rain = 0
KTA1 141725Z 14008KT 01/01 A3032 RMK A01 T00060006  RH  100%=      5-min Rain = 0
KTA1 141726Z 14008KT 01/01 A3032 RMK A01 T00060006  RH  100%=      5-min Rain = 0
KTA1 141727Z 13006KT 01/01 A3032 RMK A01 T00050005  RH  100%=      5-min Rain = 0
KTA1 141728Z 13007KT 01/01 A3032 RMK A01 T00060006  RH  100%=      5-min Rain = 0
KTA1 141729Z 13008KT 01/01 A3032 RMK A01 T00060006  RH  100%=      5-min Rain = 0
KTA1 141730Z 14009KT 01/01 A3032 RMK A01 T00060006  RH  100%=      5-min Rain = 0
KTA1 141731Z 14008KT 01/01 A3032 RMK A01 T00060006  RH  100%=      5-min Rain = 0
KTA1 141732Z 14009KT 01/01 A3032 RMK A01 T00060006  RH  100%=      5-min Rain = 0
KTA1 141733Z 14008KT 01/01 A3032 RMK A01 T00050005  RH  100%=      5-min Rain = 0
KTA1 141734Z 13007KT 01/01 A3032 RMK A01 T00050005  RH  100%=      5-min Rain = 0
KTA1 141735Z 13007KT 01/01 A3032 RMK A01 T00060005  RH  100%=      5-min Rain = 0
KTA1 141736Z 14009KT 01/01 A3032 RMK A01 T00060006  RH  100%=      5-min Rain = 0
KTA1 141737Z 13009KT 01/01 A3032 RMK A01 T00070006  RH  100%=      5-min Rain = 0
KTA1 141738Z 14008KT 01/01 A3032 RMK A01 T00060006  RH  100%=      5-min Rain = 0
KTA1 141739Z 13008KT 01/01 A3031 RMK A01 T00070007  RH  100%=      5-min Rain = 0
KTA1 141740Z 13007KT 01/01 A3031 RMK A01 T00070007  RH  100%=      5-min Rain = 0
KTA1 141741Z 12006KT 01/01 A3031 RMK A01 T00070007  RH  100%=      5-min Rain = 0
KTA1 141742Z 12007KT 01/01 A3031 RMK A01 T00080008  RH  100%=      5-min Rain = 0
KTA1 141743Z 12007KT 01/01 A3031 RMK A01 T00080008  RH  100%=      5-min Rain = 0
KTA1 141744Z 12008KT 01/01 A3031 RMK A01 T00080008  RH  100%=      5-min Rain = 0
KTA1 141745Z 13008KT 01/01 A3031 RMK A01 T00080008  RH  100%=      5-min Rain = 0
KTA1 141746Z 14008KT 01/01 A3031 RMK A01 T00080008  RH  100%=      5-min Rain = 0
KTA1 141747Z 15007KT 01/01 A3031 RMK A01 T00080008  RH  100%=      5-min Rain = 0
KTA1 141748Z 14007KT 01/01 A3031 RMK A01 T00080008  RH  100%=      5-min Rain = 0
KTA1 141749Z 14007KT 01/01 A3031 RMK A01 T00080008  RH  100%=      5-min Rain = 0
KTA1 141750Z 13008KT 01/01 A3031 RMK A01 T00080008  RH  100%=      5-min Rain = 0
KTA1 141751Z 14008KT 01/01 A3031 RMK A01 T00080008  RH  100%=      5-min Rain = 0
KTA1 141752Z 13008KT 01/01 A3031 RMK A01 T00080007  RH  100%=      5-min Rain = 0
KTA1 141753Z 14008KT 01/01 A3031 RMK A01 T00070007  RH  100%=      5-min Rain = 0
KTA1 141754Z 14007KT 01/01 A3031 RMK A01 T00080007  RH  100%=      5-min Rain = 0
KTA1 141755Z 14008KT 01/01 A3031 RMK A01 T00070007  RH  100%=      5-min Rain = 0
KTA1 141756Z 15006KT 01/01 A3031 RMK A01 T00070007  RH  100%=      5-min Rain = 0
KTA1 141757Z 15007KT 01/01 A3031 RMK A01 T00070007  RH  100%=      5-min Rain = 0
KTA1 141758Z 14006KT 01/01 A3031 RMK A01 T00070007  RH  100%=      5-min Rain = 0
KTA1 141759Z 15007KT 01/01 A3031 RMK A01 T00080007  RH  100%=      5-min Rain = 0
KTA1 141800Z 15006KT 01/01 A3031 RMK A01 T00080008  RH  100%=      5-min Rain = 0
KTA1 141801Z 15006KT 01/01 A3031 RMK A01 T00080008  RH  100%=      5-min Rain = 0
KTA1 141802Z 15008KT 01/01 A3031 RMK A01 T00080008  RH  100%=      5-min Rain = 0
KTA1 141803Z 15008KT 01/01 A3031 RMK A01 T00080008  RH  100%=      5-min Rain = 0
KTA1 141804Z 16008KT 01/01 A3031 RMK A01 T00080008  RH  100%=      5-min Rain = 0
KTA1 141805Z 14006KT 01/01 A3031 RMK A01 T00080008  RH  100%=      5-min Rain = 0
KTA1 141806Z 14006KT 01/01 A3031 RMK A01 T00090009  RH  100%=      5-min Rain = 0
KTA1 141807Z 13007KT 01/01 A3031 RMK A01 T00090009  RH  100%=      5-min Rain = 0
KTA1 141808Z 13007KT 01/01 A3031 RMK A01 T00100009  RH  100%=      5-min Rain = 0
KTA1 141809Z 13006KT 01/01 A3031 RMK A01 T00100009  RH  100%=      5-min Rain = 0
KTA1 141810Z 15007KT 01/01 A3031 RMK A01 T00090009  RH  100%=      5-min Rain = 0
KTA1 141811Z 15006KT 01/01 A3031 RMK A01 T00110010  RH  100%=      5-min Rain = 0
KTA1 141812Z 15008KT 01/01 A3031 RMK A01 T00110010  RH  100%=      5-min Rain = 0
KTA1 141813Z 14009KT 01/01 A3031 RMK A01 T00110010  RH  100%=      5-min Rain = 0
KTA1 141814Z 13009KT 01/01 A3031 RMK A01 T00100010  RH  099%=      5-min Rain = 0
KTA1 141815Z 13008KT 01/01 A3031 RMK A01 T00100009  RH  099%=      5-min Rain = 0
KTA1 141816Z 13008KT 01/01 A3031 RMK A01 T00100009  RH  099%=      5-min Rain = 0
KTA1 141817Z 13008KT 01/01 A3031 RMK A01 T00100009  RH  099%=      5-min Rain = 0
KTA1 141818Z 12009KT 01/01 A3031 RMK A01 T00100009  RH  099%=      5-min Rain = 0
KTA1 141819Z 14009KT 01/01 A3031 RMK A01 T00100009  RH  099%=      5-min Rain = 0
KTA1 141820Z 14008KT 01/01 A3031 RMK A01 T00100009  RH  099%=      5-min Rain = 0
KTA1 141821Z 13008KT 01/01 A3031 RMK A01 T00100010  RH  100%=      5-min Rain = 0
KTA1 141822Z 13010KT 01/01 A3031 RMK A01 T00110010  RH  100%=      5-min Rain = 0
KTA1 141823Z 12008KT 01/01 A3031 RMK A01 T00110010  RH  099%=      5-min Rain = 0
KTA1 141824Z 13010KT 01/01 A3031 RMK A01 T00100009  RH  099%=      5-min Rain = 0
KTA1 141825Z 13008KT 01/01 A3031 RMK A01 T00100009  RH  099%=      5-min Rain = 0
KTA1 141826Z 14009KT 01/01 A3031 RMK A01 T00100009  RH  099%=      5-min Rain = 0
KTA1 141827Z 15008KT 01/01 A3031 RMK A01 T00100010  RH  100%=      5-min Rain = 0
KTA1 141828Z 15006KT 01/01 A3031 RMK A01 T00100009  RH  099%=      5-min Rain = 0
KTA1 141829Z 14007KT 01/01 A3031 RMK A01 T00100010  RH  099%=      5-min Rain = 0
KTA1 141830Z 13007KT 01/01 A3031 RMK A01 T00110010  RH  100%=      5-min Rain = 0
KTA1 141831Z 15007KT 01/01 A3031 RMK A01 T00110010  RH  100%=      5-min Rain = 0
KTA1 141832Z 13008KT 01/01 A3031 RMK A01 T00110011  RH  099%=      5-min Rain = 0
KTA1 141833Z 14009KT 01/01 A303 RMK A01 T00120010  RH  099%=      5-min Rain = 0
KTA1 141834Z 14009KT 01/01 A303 RMK A01 T00110010  RH  099%=      5-min Rain = 0
KTA1 141835Z 14008KT 01/01 A303 RMK A01 T00110010  RH  099%=      5-min Rain = 0
KTA1 141836Z 14007KT 01/01 A303 RMK A01 T00110009  RH  099%=      5-min Rain = 0
KTA1 141837Z 13006KT 01/01 A303 RMK A01 T00110009  RH  099%=      5-min Rain = 0
KTA1 141838Z 15009KT 01/01 A303 RMK A01 T00110009  RH  099%=      5-min Rain = 0
KTA1 141839Z 15008KT 01/01 A303 RMK A01 T00120010  RH  099%=      5-min Rain = 0
KTA1 141840Z 14007KT 01/01 A303 RMK A01 T00120010  RH  099%=      5-min Rain = 0
KTA1 141841Z 13007KT 01/01 A303 RMK A01 T00130011  RH  098%=      5-min Rain = 0
KTA1 141842Z 15008KT 01/01 A303 RMK A01 T00130011  RH  098%=      5-min Rain = 0
KTA1 141843Z 15009KT 01/01 A303 RMK A01 T00140012  RH  098%=      5-min Rain = 0
KTA1 141844Z 14008KT 01/01 A303 RMK A01 T00140010  RH  097%=      5-min Rain = 0
KTA1 141845Z 15006KT 01/01 A303 RMK A01 T00130009  RH  097%=      5-min Rain = 0
KTA1 141846Z 15006KT 01/01 A303 RMK A01 T00130009  RH  097%=      5-min Rain = 0
KTA1 141847Z 14005KT 01/01 A303 RMK A01 T00130009  RH  097%=      5-min Rain = 0
KTA1 141848Z 14007KT 01/01 A3029 RMK A01 T00130010  RH  097%=      5-min Rain = 0
KTA1 141849Z 14008KT 02/01 A3029 RMK A01 T00150011  RH  097%=      5-min Rain = 0
KTA1 141850Z 14006KT 02/01 A3029 RMK A01 T00150011  RH  097%=      5-min Rain = 0
KTA1 141851Z 13008KT 02/01 A3029 RMK A01 T00160012  RH  097%=      5-min Rain = 0
KTA1 141852Z 14008KT 02/01 A3029 RMK A01 T00170011  RH  096%=      5-min Rain = 0
KTA1 141853Z 14007KT 02/01 A3029 RMK A01 T00170011  RH  096%=      5-min Rain = 0
KTA1 141854Z 13006KT 02/01 A3029 RMK A01 T00180012  RH  096%=      5-min Rain = 0
KTA1 141855Z 13007KT 02/01 A3029 RMK A01 T00180011  RH  095%=      5-min Rain = 0
KTA1 141856Z 13008KT 02/01 A3029 RMK A01 T00180010  RH  094%=      5-min Rain = 0
KTA1 141857Z 13007KT 02/01 A3029 RMK A01 T00180009  RH  094%=      5-min Rain = 0
KTA1 141858Z 14009KT 02/01 A3029 RMK A01 T00170009  RH  094%=      5-min Rain = 0
KTA1 141859Z 15008KT 02/01 A3029 RMK A01 T00180010  RH  094%=      5-min Rain = 0
KTA1 141900Z 15008KT 02/01 A3029 RMK A01 T00180010  RH  094%=      5-min Rain = 0
KTA1 141901Z 15008KT 02/01 A3029 RMK A01 T00190010  RH  094%=      5-min Rain = 0
KTA1 141902Z 16008KT 02/01 A3029 RMK A01 T00190010  RH  094%=      5-min Rain = 0
KTA1 141903Z 17008KT 02/01 A3029 RMK A01 T00190010  RH  093%=      5-min Rain = 0
KTA1 141904Z 16007KT 02/01 A3029 RMK A01 T00190009  RH  093%=      5-min Rain = 0
KTA1 141905Z 17006KT 02/01 A3029 RMK A01 T00190009  RH  093%=      5-min Rain = 0
KTA1 141906Z 18006KT 02/01 A3029 RMK A01 T00200010  RH  093%=      5-min Rain = 0
KTA1 141907Z 17006KT 02/01 A3028 RMK A01 T00200010  RH  093%=      5-min Rain = 0
KTA1 141908Z 18005KT 02/01 A3028 RMK A01 T00210010  RH  093%=      5-min Rain = 0
KTA1 141909Z 17005KT 02/01 A3028 RMK A01 T00210011  RH  093%=      5-min Rain = 0
KTA1 141910Z 17006KT 02/01 A3028 RMK A01 T00220011  RH  092%=      5-min Rain = 0
KTA1 141911Z 17006KT 02/01 A3028 RMK A01 T00230011  RH  092%=      5-min Rain = 0
KTA1 141912Z 14007KT 02/01 A3028 RMK A01 T00240010  RH  091%=      5-min Rain = 0
KTA1 141913Z 15010KT 03/01 A3028 RMK A01 T00250011  RH  091%=      5-min Rain = 0
KTA1 141914Z 16010KT 03/01 A3028 RMK A01 T00250010  RH  090%=      5-min Rain = 0
KTA1 141915Z 16010KT 03/01 A3028 RMK A01 T00250009  RH  089%=      5-min Rain = 0
KTA1 141916Z 15010KT 03/01 A3028 RMK A01 T00250009  RH  089%=      5-min Rain = 0
KTA1 141917Z 15010KT 03/01 A3028 RMK A01 T00260008  RH  088%=      5-min Rain = 0
KTA1 141918Z 15008KT 03/01 A3028 RMK A01 T00260008  RH  088%=      5-min Rain = 0
KTA1 141919Z 16007KT 03/01 A3027 RMK A01 T00260008  RH  088%=      5-min Rain = 0
KTA1 141920Z 16008KT 03/01 A3027 RMK A01 T00260009  RH  088%=      5-min Rain = 0
KTA1 141921Z 15009KT 03/01 A3027 RMK A01 T00270009  RH  088%=      5-min Rain = 0
KTA1 141922Z 17008KT 03/01 A3027 RMK A01 T00270008  RH  088%=      5-min Rain = 0
KTA1 141923Z 16007KT 03/01 A3027 RMK A01 T00270008  RH  088%=      5-min Rain = 0
KTA1 141924Z 15008KT 03/01 A3027 RMK A01 T00270009  RH  088%=      5-min Rain = 0
KTA1 141925Z 15008KT 03/01 A3027 RMK A01 T00280010  RH  088%=      5-min Rain = 0
KTA1 141926Z 15008KT 03/01 A3027 RMK A01 T00280010  RH  087%=      5-min Rain = 0
KTA1 141927Z 16008KT 03/01 A3027 RMK A01 T00280009  RH  087%=      5-min Rain = 0
KTA1 141928Z 16006KT 03/01 A3027 RMK A01 T00280009  RH  087%=      5-min Rain = 0
KTA1 141929Z 17005KT 03/01 A3027 RMK A01 T00290009  RH  087%=      5-min Rain = 0
KTA1 141930Z 16006KT 03/01 A3027 RMK A01 T00290009  RH  087%=      5-min Rain = 0
KTA1 141931Z 15008KT 03/01 A3027 RMK A01 T00290009  RH  087%=      5-min Rain = 0
KTA1 141932Z 15008KT 03/01 A3027 RMK A01 T00290009  RH  087%=      5-min Rain = 0
KTA1 141933Z 16008KT 03/01 A3027 RMK A01 T00290009  RH  087%=      5-min Rain = 0
KTA1 141934Z 17009KT 03/01 A3027 RMK A01 T00290010  RH  087%=      5-min Rain = 0
KTA1 141935Z 17010KT 03/01 A3027 RMK A01 T00290010  RH  087%=      5-min Rain = 0
KTA1 141936Z 17009KT 03/01 A3027 RMK A01 T00290009  RH  087%=      5-min Rain = 0
KTA1 141937Z 17009KT 03/01 A3027 RMK A01 T00280009  RH  087%=      5-min Rain = 0
KTA1 141938Z 17008KT 03/01 A3027 RMK A01 T00280009  RH  087%=      5-min Rain = 0
KTA1 141939Z 16007KT 03/01 A3027 RMK A01 T00280009  RH  087%=      5-min Rain = 0
KTA1 141940Z 17006KT 03/01 A3026 RMK A01 T00290009  RH  087%=      5-min Rain = 0
KTA1 141941Z 16007KT 03/01 A3026 RMK A01 T00290010  RH  087%=      5-min Rain = 0
KTA1 141942Z 18010KT 03/01 A3026 RMK A01 T00300010  RH  087%=      5-min Rain = 0
KTA1 141943Z 17007KT 03/01 A3026 RMK A01 T00300009  RH  086%=      5-min Rain = 0
KTA1 141944Z 15008KT 03/01 A3026 RMK A01 T00300010  RH  087%=      5-min Rain = 0
KTA1 141945Z 15008KT 03/01 A3026 RMK A01 T00300009  RH  086%=      5-min Rain = 0
KTA1 141946Z 15008KT 03/01 A3026 RMK A01 T00300009  RH  086%=      5-min Rain = 0
KTA1 141947Z 15008KT 03/01 A3026 RMK A01 T00300009  RH  086%=      5-min Rain = 0
KTA1 141948Z 15008KT 03/01 A3026 RMK A01 T00300008  RH  086%=      5-min Rain = 0
KTA1 141949Z 15007KT 03/01 A3026 RMK A01 T00300008  RH  086%=      5-min Rain = 0
KTA1 141950Z 16008KT 03/01 A3026 RMK A01 T00300009  RH  086%=      5-min Rain = 0
KTA1 141951Z 16008KT 03/01 A3026 RMK A01 T00310010  RH  086%=      5-min Rain = 0
KTA1 141952Z 17008KT 03/01 A3026 RMK A01 T00320010  RH  086%=      5-min Rain = 0
KTA1 141953Z 17007KT 03/01 A3026 RMK A01 T00320010  RH  085%=      5-min Rain = 0
KTA1 141954Z 17007KT 03/01 A3026 RMK A01 T00320010  RH  085%=      5-min Rain = 0
KTA1 141955Z 15010KT 03/01 A3026 RMK A01 T00320010  RH  085%=      5-min Rain = 0
KTA1 141956Z 14009KT 03/01 A3026 RMK A01 T00320009  RH  085%=      5-min Rain = 0
KTA1 141957Z 14009KT 03/01 A3026 RMK A01 T00310009  RH  086%=      5-min Rain = 0
KTA1 141958Z 16008KT 03/01 A3026 RMK A01 T00310010  RH  086%=      5-min Rain = 0
KTA1 141959Z 15010KT 03/01 A3025 RMK A01 T00320011  RH  086%=      5-min Rain = 0
KTA1 142000Z 16008KT 03/01 A3025 RMK A01 T00320010  RH  086%=      5-min Rain = 0
KTA1 142001Z 16008KT 03/01 A3025 RMK A01 T00320010  RH  086%=      5-min Rain = 0
KTA1 142002Z 15010KT 03/01 A3025 RMK A01 T00320010  RH  086%=      5-min Rain = 0
KTA1 142003Z 16008KT 03/01 A3025 RMK A01 T00310009  RH  085%=      5-min Rain = 0
KTA1 142004Z 16008KT 03/01 A3025 RMK A01 T00310008  RH  085%=      5-min Rain = 0
KTA1 142005Z 16006KT 03/01 A3025 RMK A01 T00310009  RH  086%=      5-min Rain = 0
KTA1 142006Z 14009KT 03/01 A3025 RMK A01 T00310009  RH  086%=      5-min Rain = 0
KTA1 142007Z 18009KT 03/01 A3025 RMK A01 T00320011  RH  086%=      5-min Rain = 0
KTA1 142008Z 18007KT 03/01 A3025 RMK A01 T00340012  RH  085%=      5-min Rain = 0
KTA1 142009Z 18006KT 04/01 A3025 RMK A01 T00350013  RH  085%=      5-min Rain = 0
KTA1 142010Z 16009KT 04/01 A3025 RMK A01 T00360012  RH  084%=      5-min Rain = 0
KTA1 142011Z 17009KT 04/01 A3025 RMK A01 T00360010  RH  083%=      5-min Rain = 0
KTA1 142012Z 17009KT 04/01 A3025 RMK A01 T00350010  RH  084%=      5-min Rain = 0
KTA1 142013Z 16008KT 03/01 A3025 RMK A01 T00340010  RH  084%=      5-min Rain = 0
KTA1 142014Z 17007KT 03/01 A3025 RMK A01 T00340010  RH  084%=      5-min Rain = 0
KTA1 142015Z 15005KT 03/01 A3025 RMK A01 T00340010  RH  084%=      5-min Rain = 0
KTA1 142016Z 15006KT 03/01 A3025 RMK A01 T00340011  RH  084%=      5-min Rain = 0
KTA1 142017Z 14009KT 04/01 A3025 RMK A01 T00350012  RH  085%=      5-min Rain = 0
KTA1 142018Z 14009KT 04/01 A3025 RMK A01 T00360012  RH  084%=      5-min Rain = 0
KTA1 142019Z 15008KT 04/01 A3025 RMK A01 T00350011  RH  084%=      5-min Rain = 0
KTA1 142020Z 16009KT 04/01 A3025 RMK A01 T00350011  RH  084%=      5-min Rain = 0
KTA1 142021Z 17011KT 04/01 A3025 RMK A01 T00350011  RH  085%=      5-min Rain = 0
KTA1 142022Z 17009KT 03/01 A3025 RMK A01 T00340011  RH  085%=      5-min Rain = 0
KTA1 142023Z 15007KT 03/01 A3025 RMK A01 T00340011  RH  085%=      5-min Rain = 0
KTA1 142024Z 15006KT 03/01 A3025 RMK A01 T00340011  RH  085%=      5-min Rain = 0
KTA1 142025Z 17009KT 03/01 A3025 RMK A01 T00340012  RH  085%=      5-min Rain = 0
KTA1 142026Z 16007KT 04/01 A3024 RMK A01 T00350011  RH  084%=      5-min Rain = 0
KTA1 142027Z 16009KT 04/01 A3024 RMK A01 T00350010  RH  084%=      5-min Rain = 0
KTA1 142028Z 17009KT 04/01 A3024 RMK A01 T00350010  RH  084%=      5-min Rain = 0
KTA1 142029Z 17008KT 04/01 A3024 RMK A01 T00350010  RH  083%=      5-min Rain = 0
KTA1 142030Z 17007KT 04/01 A3024 RMK A01 T00360010  RH  084%=      5-min Rain = 0
KTA1 142031Z 16007KT 04/01 A3024 RMK A01 T00360011  RH  083%=      5-min Rain = 0
KTA1 142032Z 17008KT 04/01 A3024 RMK A01 T00360011  RH  083%=      5-min Rain = 0
KTA1 142033Z 17008KT 04/01 A3024 RMK A01 T00360011  RH  083%=      5-min Rain = 0
KTA1 142034Z 18007KT 04/01 A3024 RMK A01 T00360011  RH  084%=      5-min Rain = 0
KTA1 142035Z 18009KT 04/01 A3024 RMK A01 T00370012  RH  084%=      5-min Rain = 0
KTA1 142036Z 17009KT 04/01 A3024 RMK A01 T00380012  RH  083%=      5-min Rain = 0
KTA1 142037Z 15007KT 04/01 A3024 RMK A01 T00370011  RH  083%=      5-min Rain = 0
KTA1 142038Z 15009KT 04/01 A3024 RMK A01 T00380012  RH  083%=      5-min Rain = 0
KTA1 142039Z 15009KT 04/01 A3024 RMK A01 T00380013  RH  083%=      5-min Rain = 0
KTA1 142040Z 15009KT 04/01 A3024 RMK A01 T00380012  RH  083%=      5-min Rain = 0
KTA1 142041Z 15009KT 04/01 A3024 RMK A01 T00390013  RH  083%=      5-min Rain = 0
KTA1 142042Z 15007KT 04/01 A3024 RMK A01 T00390012  RH  083%=      5-min Rain = 0
KTA1 142043Z 15008KT 04/01 A3024 RMK A01 T00380013  RH  083%=      5-min Rain = 0
KTA1 142044Z 15010KT 04/01 A3023 RMK A01 T00390013  RH  083%=      5-min Rain = 0
KTA1 142045Z 15009KT 04/01 A3023 RMK A01 T00390012  RH  083%=      5-min Rain = 0
KTA1 142046Z 14009KT 04/01 A3023 RMK A01 T00390012  RH  083%=      5-min Rain = 0
KTA1 142047Z 14008KT 04/01 A3023 RMK A01 T00400013  RH  083%=      5-min Rain = 0
KTA1 142048Z 16007KT 04/01 A3023 RMK A01 T00400013  RH  082%=      5-min Rain = 0
KTA1 142049Z 14007KT 04/01 A3023 RMK A01 T00400012  RH  082%=      5-min Rain = 0
KTA1 142050Z 15007KT 04/01 A3023 RMK A01 T00410013  RH  082%=      5-min Rain = 0
KTA1 142051Z 15008KT 04/01 A3023 RMK A01 T00420014  RH  082%=      5-min Rain = 0
KTA1 142052Z 15006KT 04/01 A3023 RMK A01 T00420013  RH  081%=      5-min Rain = 0
KTA1 142053Z 15007KT 04/01 A3023 RMK A01 T00420013  RH  081%=      5-min Rain = 0
KTA1 142054Z 16006KT 04/01 A3023 RMK A01 T00420013  RH  081%=      5-min Rain = 0
KTA1 142055Z 15007KT 04/01 A3023 RMK A01 T00430014  RH  082%=      5-min Rain = 0
KTA1 142056Z 15007KT 04/02 A3023 RMK A01 T00440015  RH  081%=      5-min Rain = 0
KTA1 142057Z 14008KT 05/02 A3023 RMK A01 T00450015  RH  081%=      5-min Rain = 0
KTA1 142058Z 15009KT 05/02 A3023 RMK A01 T00460015  RH  081%=      5-min Rain = 0
KTA1 142059Z 16008KT 05/01 A3022 RMK A01 T00450012  RH  079%=      5-min Rain = 0
KTA1 142100Z 14006KT 04/01 A3022 RMK A01 T00430011  RH  079%=      5-min Rain = 0
KTA1 142101Z 14006KT 04/01 A3022 RMK A01 T00430012  RH  080%=      5-min Rain = 0
KTA1 142102Z 16008KT 04/01 A3022 RMK A01 T00440013  RH  080%=      5-min Rain = 0
KTA1 142103Z 15011KT 05/01 A3022 RMK A01 T00450013  RH  080%=      5-min Rain = 0
KTA1 142104Z 14008KT 05/01 A3022 RMK A01 T00460013  RH  079%=      5-min Rain = 0
KTA1 142105Z 15008KT 05/01 A3022 RMK A01 T00480014  RH  079%=      5-min Rain = 0
KTA1 142106Z 17010KT 05/02 A3022 RMK A01 T00500016  RH  079%=      5-min Rain = 0
KTA1 142107Z 17010KT 05/01 A3022 RMK A01 T00510014  RH  077%=      5-min Rain = 0
KTA1 142108Z 17010KT 05/01 A3022 RMK A01 T00500013  RH  077%=      5-min Rain = 0
KTA1 142109Z 18006KT 05/01 A3022 RMK A01 T00490012  RH  077%=      5-min Rain = 0
KTA1 142110Z 16006KT 05/01 A3022 RMK A01 T00480012  RH  078%=      5-min Rain = 0
KTA1 142111Z 15008KT 05/01 A3022 RMK A01 T00490014  RH  078%=      5-min Rain = 0
KTA1 142112Z 16006KT 05/01 A3022 RMK A01 T00490013  RH  077%=      5-min Rain = 0
KTA1 142113Z 13009KT 05/01 A3022 RMK A01 T00500014  RH  078%=      5-min Rain = 0
KTA1 142114Z 13010KT 05/01 A3022 RMK A01 T00510014  RH  077%=      5-min Rain = 0
KTA1 142115Z 14008KT 05/01 A3022 RMK A01 T00510014  RH  077%=      5-min Rain = 0
KTA1 142116Z 15008KT 05/01 A3022 RMK A01 T00510014  RH  077%=      5-min Rain = 0
KTA1 142117Z 13010KT 05/01 A3022 RMK A01 T00510014  RH  077%=      5-min Rain = 0
KTA1 142118Z 14010KT 05/02 A3022 RMK A01 T00520015  RH  077%=      5-min Rain = 0
KTA1 142119Z 15008KT 05/02 A3022 RMK A01 T00530015  RH  076%=      5-min Rain = 0
KTA1 142120Z 15006KT 05/02 A3022 RMK A01 T00540015  RH  076%=      5-min Rain = 0
KTA1 142121Z 14010KT 06/02 A3022 RMK A01 T00550015  RH  076%=      5-min Rain = 0
KTA1 142122Z 14010KT 06/02 A3021 RMK A01 T00560015  RH  075%=      5-min Rain = 0
KTA1 142123Z 15009KT 06/02 A3022 RMK A01 T00570015  RH  075%=      5-min Rain = 0
KTA1 142124Z 14007KT 06/02 A3021 RMK A01 T00600018  RH  075%=      5-min Rain = 0
KTA1 142125Z 15008KT 06/02 A3021 RMK A01 T00630019  RH  073%=      5-min Rain = 0
KTA1 142126Z 15007KT 06/02 A3021 RMK A01 T00640018  RH  073%=      5-min Rain = 0
KTA1 142127Z 14005KT 07/02 A3021 RMK A01 T00650019  RH  072%=      5-min Rain = 0
KTA1 142128Z 12009KT 07/02 A3021 RMK A01 T00670019  RH  072%=      5-min Rain = 0
KTA1 142129Z 12010KT 07/02 A3021 RMK A01 T00650017  RH  071%=      5-min Rain = 0
KTA1 142130Z 13008KT 07/02 A3021 RMK A01 T00650018  RH  072%=      5-min Rain = 0
KTA1 142131Z 12010KT 06/02 A3021 RMK A01 T00640019  RH  073%=      5-min Rain = 0
KTA1 142132Z 14012KT 06/02 A3021 RMK A01 T00640018  RH  072%=      5-min Rain = 0
KTA1 142133Z 15012KT 06/02 A3021 RMK A01 T00610015  RH  072%=      5-min Rain = 0
KTA1 142134Z 14009KT 06/02 A3021 RMK A01 T00600015  RH  073%=      5-min Rain = 0
KTA1 142135Z 12010KT 06/02 A3021 RMK A01 T00600017  RH  074%=      5-min Rain = 0
KTA1 142136Z 13009KT 06/02 A3021 RMK A01 T00610016  RH  073%=      5-min Rain = 0
KTA1 142137Z 14009KT 06/02 A3021 RMK A01 T00600015  RH  073%=      5-min Rain = 0
KTA1 142138Z 15009KT 06/02 A3021 RMK A01 T00600016  RH  073%=      5-min Rain = 0
KTA1 142139Z 15010KT 06/02 A3021 RMK A01 T00610016  RH  073%=      5-min Rain = 0
KTA1 142140Z 15009KT 06/02 A3021 RMK A01 T00610016  RH  073%=      5-min Rain = 0
KTA1 142141Z 15011KT 06/02 A3021 RMK A01 T00610016  RH  073%=      5-min Rain = 0
KTA1 142142Z 15010KT 06/02 A3021 RMK A01 T00600015  RH  073%=      5-min Rain = 0
KTA1 142143Z 14009KT 06/02 A302 RMK A01 T00600015  RH  073%=      5-min Rain = 0
KTA1 142144Z 13009KT 06/02 A302 RMK A01 T00620017  RH  073%=      5-min Rain = 0
KTA1 142145Z 12011KT 06/02 A302 RMK A01 T00630017  RH  072%=      5-min Rain = 0
KTA1 142146Z 15008KT 06/02 A302 RMK A01 T00640017  RH  072%=      5-min Rain = 0
KTA1 142147Z 16009KT 07/02 A302 RMK A01 T00660018  RH  071%=      5-min Rain = 0
KTA1 142148Z 17011KT 07/02 A302 RMK A01 T00680019  RH  071%=      5-min Rain = 0
KTA1 142149Z 17008KT 07/02 A302 RMK A01 T00670017  RH  071%=      5-min Rain = 0
KTA1 142150Z 17009KT 07/02 A302 RMK A01 T00660017  RH  071%=      5-min Rain = 0
KTA1 142151Z 15009KT 07/02 A302 RMK A01 T00670019  RH  071%=      5-min Rain = 0
KTA1 142152Z 15010KT 07/02 A302 RMK A01 T00710021  RH  071%=      5-min Rain = 0
KTA1 142153Z 15010KT 07/02 A302 RMK A01 T00730020  RH  069%=      5-min Rain = 0
KTA1 142154Z 15011KT 07/02 A302 RMK A01 T00740020  RH  069%=      5-min Rain = 0
KTA1 142155Z 14009KT 07/02 A302 RMK A01 T00730020  RH  069%=      5-min Rain = 0
KTA1 142156Z 13011KT 07/02 A302 RMK A01 T00710018  RH  069%=      5-min Rain = 0
KTA1 142157Z 12011KT 07/02 A302 RMK A01 T00690016  RH  069%=      5-min Rain = 0
KTA1 142158Z 13009KT 07/02 A302 RMK A01 T00680016  RH  069%=      5-min Rain = 0
KTA1 142159Z 14010KT 07/02 A302 RMK A01 T00690018  RH  070%=      5-min Rain = 0
KTA1 142200Z 14011KT 07/02 A302 RMK A01 T00720019  RH  069%=      5-min Rain = 0
KTA1 142201Z 15013KT 07/02 A3019 RMK A01 T00720018  RH  068%=      5-min Rain = 0
KTA1 142202Z 15011KT 07/02 A3019 RMK A01 T00720018  RH  068%=      5-min Rain = 0
KTA1 142203Z 15011KT 07/02 A3019 RMK A01 T00720018  RH  068%=      5-min Rain = 0
KTA1 142204Z 16011KT 07/02 A3019 RMK A01 T00730019  RH  069%=      5-min Rain = 0
KTA1 142205Z 15011KT 07/02 A3019 RMK A01 T00730019  RH  068%=      5-min Rain = 0
KTA1 142206Z 17009KT 07/02 A3019 RMK A01 T00740019  RH  068%=      5-min Rain = 0
KTA1 142207Z 16011KT 08/02 A3019 RMK A01 T00760021  RH  068%=      5-min Rain = 0
KTA1 142208Z 16010KT 08/02 A3019 RMK A01 T00750019  RH  067%=      5-min Rain = 0
KTA1 142209Z 16007KT 07/02 A3019 RMK A01 T00730018  RH  068%=      5-min Rain = 0
KTA1 142210Z 16011KT 07/02 A3019 RMK A01 T00730020  RH  069%=      5-min Rain = 0
KTA1 142211Z 16008KT 07/02 A3019 RMK A01 T00740020  RH  068%=      5-min Rain = 0
KTA1 142212Z 15009KT 08/02 A3019 RMK A01 T00760021  RH  068%=      5-min Rain = 0
KTA1 142213Z 14011KT 08/02 A3019 RMK A01 T00770021  RH  068%=      5-min Rain = 0
KTA1 142214Z 14011KT 08/02 A3018 RMK A01 T00780021  RH  067%=      5-min Rain = 0
KTA1 142215Z 14011KT 08/02 A3018 RMK A01 T00780020  RH  067%=      5-min Rain = 0
KTA1 142216Z 13012KT 08/02 A3018 RMK A01 T00790022  RH  067%=      5-min Rain = 0
KTA1 142217Z 14010KT 08/02 A3018 RMK A01 T00800021  RH  066%=      5-min Rain = 0
KTA1 142218Z 14009KT 08/02 A3018 RMK A01 T00810023  RH  067%=      5-min Rain = 0
KTA1 142219Z 13011KT 08/02 A3018 RMK A01 T00820022  RH  066%=      5-min Rain = 0
KTA1 142220Z 14011KT 08/02 A3018 RMK A01 T00820022  RH  066%=      5-min Rain = 0
KTA1 142221Z 14013KT 08/02 A3018 RMK A01 T00830023  RH  066%=      5-min Rain = 0
KTA1 142222Z 14012KT 08/02 A3018 RMK A01 T00840022  RH  065%=      5-min Rain = 0
KTA1 142223Z 14012KT 08/02 A3018 RMK A01 T00840023  RH  065%=      5-min Rain = 0
KTA1 142224Z 15011KT 09/02 A3018 RMK A01 T00850023  RH  065%=      5-min Rain = 0
KTA1 142225Z 15013KT 09/02 A3018 RMK A01 T00860022  RH  064%=      5-min Rain = 0
KTA1 142226Z 15010KT 08/02 A3018 RMK A01 T00840022  RH  065%=      5-min Rain = 0
KTA1 142227Z 14012KT 08/02 A3018 RMK A01 T00840022  RH  065%=      5-min Rain = 0
KTA1 142228Z 16011KT 08/02 A3018 RMK A01 T00840022  RH  065%=      5-min Rain = 0
KTA1 142229Z 16012KT 08/02 A3018 RMK A01 T00840023  RH  065%=      5-min Rain = 0
KTA1 142230Z 14012KT 08/02 A3018 RMK A01 T00830022  RH  065%=      5-min Rain = 0
KTA1 142231Z 16011KT 08/02 A3018 RMK A01 T00840023  RH  066%=      5-min Rain = 0
KTA1 142232Z 16011KT 09/02 A3018 RMK A01 T00850023  RH  065%=      5-min Rain = 0
KTA1 142233Z 16008KT 09/02 A3018 RMK A01 T00850024  RH  065%=      5-min Rain = 0
KTA1 142234Z 16009KT 09/02 A3018 RMK A01 T00850023  RH  065%=      5-min Rain = 0
KTA1 142235Z 16008KT 09/02 A3018 RMK A01 T00850023  RH  065%=      5-min Rain = 0
KTA1 142236Z 14011KT 09/02 A3018 RMK A01 T00860024  RH  065%=      5-min Rain = 0
KTA1 142237Z 15011KT 09/03 A3018 RMK A01 T00880025  RH  065%=      5-min Rain = 0
KTA1 142238Z 15011KT 09/02 A3018 RMK A01 T00890024  RH  064%=      5-min Rain = 0
KTA1 142239Z 14009KT 09/03 A3018 RMK A01 T00900025  RH  064%=      5-min Rain = 0
KTA1 142240Z 14010KT 09/03 A3018 RMK A01 T00900025  RH  064%=      5-min Rain = 0
KTA1 142241Z 13010KT 09/03 A3018 RMK A01 T00910026  RH  064%=      5-min Rain = 0
KTA1 142242Z 14011KT 09/03 A3018 RMK A01 T00920026  RH  064%=      5-min Rain = 0
KTA1 142243Z 14010KT 09/02 A3018 RMK A01 T00910024  RH  063%=      5-min Rain = 0
KTA1 142244Z 15009KT 09/03 A3018 RMK A01 T00890025  RH  064%=      5-min Rain = 0
KTA1 142245Z 13011G17KT 09/03 A3018 RMK A01 T00900027  RH  064%=      5-min Rain = 0
KTA1 142246Z 14013KT 09/03 A3018 RMK A01 T00920027  RH  064%=      5-min Rain = 0
KTA1 142247Z 14011KT 09/03 A3018 RMK A01 T00930025  RH  063%=      5-min Rain = 0
KTA1 142248Z 13010KT 09/03 A3018 RMK A01 T00920025  RH  063%=      5-min Rain = 0
KTA1 142249Z 13012KT 09/03 A3018 RMK A01 T00920027  RH  064%=      5-min Rain = 0
KTA1 142250Z 14012KT 09/03 A3018 RMK A01 T00930027  RH  063%=      5-min Rain = 0
KTA1 142251Z 14011KT 09/03 A3018 RMK A01 T00930027  RH  063%=      5-min Rain = 0
KTA1 142252Z 14011KT 09/03 A3017 RMK A01 T00940028  RH  063%=      5-min Rain = 0
KTA1 142253Z 15010KT 10/03 A3017 RMK A01 T00950029  RH  063%=      5-min Rain = 0
KTA1 142254Z 14010KT 10/03 A3017 RMK A01 T00960028  RH  062%=      5-min Rain = 0
KTA1 142255Z 14011KT 10/03 A3017 RMK A01 T00960028  RH  062%=      5-min Rain = 0
KTA1 142256Z 13010KT 10/03 A3017 RMK A01 T00960028  RH  062%=      5-min Rain = 0
KTA1 142257Z 15009KT 10/03 A3017 RMK A01 T00970028  RH  062%=      5-min Rain = 0
KTA1 142258Z 13010KT 10/03 A3017 RMK A01 T00970028  RH  062%=      5-min Rain = 0
KTA1 142259Z 13011KT 10/03 A3017 RMK A01 T00980028  RH  062%=      5-min Rain = 0
KTA1 142300Z 14011KT 10/03 A3017 RMK A01 T00970029  RH  062%=      5-min Rain = 0
KTA1 142301Z 15008KT 10/03 A3017 RMK A01 T00990029  RH  062%=      5-min Rain = 0
KTA1 142302Z 14010KT 10/03 A3017 RMK A01 T00990029  RH  062%=      5-min Rain = 0
KTA1 142303Z 15011KT 10/03 A3017 RMK A01 T01000029  RH  061%=      5-min Rain = 0
KTA1 142304Z 14010KT 10/03 A3017 RMK A01 T01000029  RH  062%=      5-min Rain = 0
KTA1 142305Z 14012KT 10/03 A3017 RMK A01 T00990029  RH  061%=      5-min Rain = 0
KTA1 142306Z 14010KT 10/03 A3017 RMK A01 T00990028  RH  061%=      5-min Rain = 0
KTA1 142307Z 14010KT 10/03 A3017 RMK A01 T00990029  RH  062%=      5-min Rain = 0
KTA1 142308Z 14011KT 10/03 A3017 RMK A01 T01000030  RH  062%=      5-min Rain = 0
KTA1 142309Z 14013KT 10/03 A3017 RMK A01 T01010030  RH  061%=      5-min Rain = 0
KTA1 142310Z 15012KT 10/03 A3017 RMK A01 T01010029  RH  061%=      5-min Rain = 0
KTA1 142311Z 14012KT 10/03 A3017 RMK A01 T01000029  RH  061%=      5-min Rain = 0
KTA1 142312Z 14011KT 10/03 A3017 RMK A01 T01000029  RH  061%=      5-min Rain = 0
KTA1 142313Z 15010KT 10/03 A3017 RMK A01 T01000029  RH  061%=      5-min Rain = 0
KTA1 142314Z 15013KT 10/03 A3017 RMK A01 T01010030  RH  061%=      5-min Rain = 0
KTA1 142315Z 15012KT 10/03 A3017 RMK A01 T01010029  RH  061%=      5-min Rain = 0
KTA1 142316Z 14010KT 10/03 A3017 RMK A01 T01010029  RH  061%=      5-min Rain = 0
KTA1 142317Z 15012KT 10/03 A3017 RMK A01 T01020030  RH  061%=      5-min Rain = 0
KTA1 142318Z 15011KT 10/03 A3017 RMK A01 T01030030  RH  061%=      5-min Rain = 0
KTA1 142319Z 15012KT 10/03 A3017 RMK A01 T01040030  RH  060%=      5-min Rain = 0
KTA1 142320Z 15012KT 10/03 A3017 RMK A01 T01040030  RH  060%=      5-min Rain = 0
KTA1 142321Z 15010KT 10/03 A3017 RMK A01 T01040030  RH  060%=      5-min Rain = 0
KTA1 142322Z 16013KT 11/03 A3016 RMK A01 T01050029  RH  060%=      5-min Rain = 0
KTA1 142323Z 16010KT 10/03 A3016 RMK A01 T01040029  RH  059%=      5-min Rain = 0
KTA1 142324Z 15012KT 10/03 A3016 RMK A01 T01040030  RH  060%=      5-min Rain = 0
KTA1 142325Z 15011KT 10/03 A3016 RMK A01 T01040030  RH  060%=      5-min Rain = 0
KTA1 142326Z 15010KT 11/03 A3016 RMK A01 T01050030  RH  060%=      5-min Rain = 0
KTA1 142327Z 16014KT 11/03 A3016 RMK A01 T01060030  RH  059%=      5-min Rain = 0
KTA1 142328Z 15012KT 11/03 A3016 RMK A01 T01060029  RH  059%=      5-min Rain = 0
KTA1 142329Z 15011KT 11/03 A3016 RMK A01 T01060030  RH  059%=      5-min Rain = 0
KTA1 142330Z 15011KT 11/03 A3016 RMK A01 T01060030  RH  059%=      5-min Rain = 0
KTA1 142331Z 16010KT 11/03 A3016 RMK A01 T01060031  RH  059%=      5-min Rain = 0
KTA1 142332Z 15011KT 11/03 A3016 RMK A01 T01060030  RH  059%=      5-min Rain = 0
KTA1 142333Z 16014KT 11/03 A3016 RMK A01 T01070030  RH  059%=      5-min Rain = 0
KTA1 142334Z 15014KT 11/03 A3016 RMK A01 T01070029  RH  059%=      5-min Rain = 0
KTA1 142335Z 15013KT 11/03 A3016 RMK A01 T01070030  RH  059%=      5-min Rain = 0
KTA1 142336Z 15011KT 11/03 A3016 RMK A01 T01070031  RH  059%=      5-min Rain = 0
KTA1 142337Z 15010KT 11/03 A3016 RMK A01 T01070031  RH  059%=      5-min Rain = 0
KTA1 142338Z 16013KT 11/03 A3016 RMK A01 T01070031  RH  059%=      5-min Rain = 0
KTA1 142339Z 16015KT 11/03 A3016 RMK A01 T01070030  RH  059%=      5-min Rain = 0
KTA1 142340Z 15010KT 11/03 A3016 RMK A01 T01060030  RH  059%=      5-min Rain = 0
KTA1 142341Z 15009KT 11/03 A3016 RMK A01 T01070031  RH  060%=      5-min Rain = 0
KTA1 142342Z 15010KT 11/03 A3016 RMK A01 T01060032  RH  060%=      5-min Rain = 0
KTA1 142343Z 15009KT 11/03 A3016 RMK A01 T01060032  RH  060%=      5-min Rain = 0
KTA1 142344Z 15010KT 11/03 A3016 RMK A01 T01060032  RH  060%=      5-min Rain = 0
KTA1 142345Z 15011KT 11/03 A3016 RMK A01 T01060032  RH  060%=      5-min Rain = 0
KTA1 142346Z 15013KT 11/03 A3016 RMK A01 T01060031  RH  060%=      5-min Rain = 0
KTA1 142347Z 15009KT 11/03 A3016 RMK A01 T01060031  RH  059%=      5-min Rain = 0
KTA1 142348Z 16011KT 11/03 A3016 RMK A01 T01060031  RH  060%=      5-min Rain = 0
KTA1 142349Z 15012KT 11/03 A3016 RMK A01 T01060031  RH  060%=      5-min Rain = 0
KTA1 142350Z 16011KT 11/03 A3016 RMK A01 T01060031  RH  060%=      5-min Rain = 0
KTA1 142351Z 15011KT 11/03 A3016 RMK A01 T01060031  RH  060%=      5-min Rain = 0
KTA1 142352Z 15012KT 11/03 A3016 RMK A01 T01060031  RH  060%=      5-min Rain = 0
KTA1 142353Z 15012KT 11/03 A3016 RMK A01 T01060031  RH  060%=      5-min Rain = 0
KTA1 142354Z 15010KT 11/03 A3016 RMK A01 T01050031  RH  060%=      5-min Rain = 0
KTA1 142355Z 15010KT 11/03 A3016 RMK A01 T01050031  RH  060%=      5-min Rain = 0
KTA1 142356Z 15010KT 11/03 A3016 RMK A01 T01050032  RH  060%=      5-min Rain = 0
KTA1 142357Z 15010KT 11/03 A3016 RMK A01 T01060032  RH  060%=      5-min Rain = 0
KTA1 142358Z 15008KT 11/03 A3016 RMK A01 T01050032  RH  060%=      5-min Rain = 0
KTA1 142359Z 16010KT 11/03 A3016 RMK A01 T01050032  RH  061%=      5-min Rain = 0
KTA1 150000Z 15010KT 11/03 A3016 RMK A01 T01050032  RH  060%=      5-min Rain = 0
KTA1 150001Z 15012KT 11/03 A3016 RMK A01 T01050031  RH  060%=      5-min Rain = 0
KTA1 150002Z 15012KT 11/03 A3016 RMK A01 T01050031  RH  060%=      5-min Rain = 0
KTA1 150003Z 15011KT 10/03 A3016 RMK A01 T01040031  RH  061%=      5-min Rain = 0
KTA1 150004Z 15011KT 10/03 A3016 RMK A01 T01040031  RH  061%=      5-min Rain = 0
KTA1 150005Z 15013KT 10/03 A3016 RMK A01 T01030031  RH  061%=      5-min Rain = 0
KTA1 150006Z 15011KT 10/03 A3016 RMK A01 T01030031  RH  061%=      5-min Rain = 0
KTA1 150007Z 15010KT 10/03 A3016 RMK A01 T01020031  RH  061%=      5-min Rain = 0
KTA1 150008Z 15009KT 10/03 A3016 RMK A01 T01010031  RH  062%=      5-min Rain = 0
KTA1 150009Z 15011KT 10/03 A3016 RMK A01 T01010031  RH  062%=      5-min Rain = 0
KTA1 150010Z 15011KT 10/03 A3016 RMK A01 T01010031  RH  062%=      5-min Rain = 0
KTA1 150011Z 15010KT 10/03 A3016 RMK A01 T01000030  RH  062%=      5-min Rain = 0
KTA1 150012Z 15010KT 10/03 A3016 RMK A01 T01000030  RH  062%=      5-min Rain = 0
KTA1 150013Z 15012KT 10/03 A3016 RMK A01 T01000030  RH  062%=      5-min Rain = 0
KTA1 150014Z 15012KT 10/03 A3016 RMK A01 T00990030  RH  062%=      5-min Rain = 0
KTA1 150015Z 15010KT 10/03 A3016 RMK A01 T00990030  RH  062%=      5-min Rain = 0
KTA1 150016Z 15010KT 10/03 A3016 RMK A01 T00980030  RH  063%=      5-min Rain = 0
KTA1 150017Z 15011KT 10/03 A3016 RMK A01 T00970029  RH  063%=      5-min Rain = 0
KTA1 150018Z 15011KT 10/03 A3016 RMK A01 T00970030  RH  063%=      5-min Rain = 0
KTA1 150019Z 15011KT 10/03 A3016 RMK A01 T00960030  RH  063%=      5-min Rain = 0
KTA1 150020Z 15012KT 10/03 A3016 RMK A01 T00960030  RH  063%=      5-min Rain = 0
KTA1 150021Z 15011KT 10/03 A3016 RMK A01 T00950029  RH  063%=      5-min Rain = 0
KTA1 150022Z 15011KT 10/03 A3016 RMK A01 T00950029  RH  063%=      5-min Rain = 0
KTA1 150023Z 15010KT 09/03 A3016 RMK A01 T00940029  RH  064%=      5-min Rain = 0
KTA1 150024Z 15010KT 09/03 A3016 RMK A01 T00930029  RH  064%=      5-min Rain = 0
KTA1 150025Z 15010KT 09/03 A3016 RMK A01 T00920029  RH  065%=      5-min Rain = 0
KTA1 150026Z 14009KT 09/03 A3016 RMK A01 T00920029  RH  065%=      5-min Rain = 0
KTA1 150027Z 14009KT 09/03 A3016 RMK A01 T00910029  RH  065%=      5-min Rain = 0
KTA1 150028Z 14009KT 09/03 A3016 RMK A01 T00900029  RH  066%=      5-min Rain = 0
KTA1 150029Z 14008KT 09/03 A3016 RMK A01 T00890029  RH  066%=      5-min Rain = 0
KTA1 150030Z 14008KT 09/03 A3016 RMK A01 T00880029  RH  067%=      5-min Rain = 0
KTA1 150031Z 14008KT 09/03 A3016 RMK A01 T00870029  RH  067%=      5-min Rain = 0
KTA1 150032Z 14009KT 09/03 A3016 RMK A01 T00860029  RH  067%=      5-min Rain = 0
KTA1 150033Z 14008KT 09/03 A3016 RMK A01 T00860030  RH  068%=      5-min Rain = 0
KTA1 150034Z 14008KT 09/03 A3016 RMK A01 T00850030  RH  068%=      5-min Rain = 0
KTA1 150035Z 14009KT 08/03 A3016 RMK A01 T00840030  RH  069%=      5-min Rain = 0
KTA1 150036Z 14009KT 08/03 A3016 RMK A01 T00840030  RH  069%=      5-min Rain = 0
KTA1 150037Z 14009KT 08/03 A3016 RMK A01 T00830030  RH  069%=      5-min Rain = 0
KTA1 150038Z 14009KT 08/03 A3016 RMK A01 T00830030  RH  069%=      5-min Rain = 0
KTA1 150039Z 14010KT 08/03 A3016 RMK A01 T00820030  RH  069%=      5-min Rain = 0
KTA1 150040Z 15009KT 08/03 A3016 RMK A01 T00820030  RH  069%=      5-min Rain = 0
KTA1 150041Z 15009KT 08/03 A3016 RMK A01 T00820030  RH  069%=      5-min Rain = 0
KTA1 150042Z 15010KT 08/03 A3016 RMK A01 T00820030  RH  070%=      5-min Rain = 0
KTA1 150043Z 14009KT 08/03 A3016 RMK A01 T00820030  RH  070%=      5-min Rain = 0
KTA1 150044Z 15008KT 08/03 A3016 RMK A01 T00820030  RH  070%=      5-min Rain = 0
KTA1 150045Z 15009KT 08/03 A3016 RMK A01 T00810030  RH  070%=      5-min Rain = 0
KTA1 150046Z 15009KT 08/03 A3016 RMK A01 T00810029  RH  070%=      5-min Rain = 0
KTA1 150047Z 15010KT 08/03 A3016 RMK A01 T00810029  RH  070%=      5-min Rain = 0
KTA1 150048Z 15009KT 08/03 A3016 RMK A01 T00810029  RH  070%=      5-min Rain = 0
KTA1 150049Z 15009KT 08/03 A3016 RMK A01 T00810029  RH  070%=      5-min Rain = 0
KTA1 150050Z 15009KT 08/03 A3016 RMK A01 T00810030  RH  070%=      5-min Rain = 0
KTA1 150051Z 15009KT 08/03 A3016 RMK A01 T00800029  RH  070%=      5-min Rain = 0
KTA1 150052Z 15009KT 08/03 A3016 RMK A01 T00790029  RH  071%=      5-min Rain = 0
KTA1 150053Z 15008KT 08/03 A3016 RMK A01 T00780029  RH  071%=      5-min Rain = 0
KTA1 150054Z 15008KT 08/03 A3016 RMK A01 T00780029  RH  071%=      5-min Rain = 0
KTA1 150055Z 15008KT 08/03 A3016 RMK A01 T00770029  RH  071%=      5-min Rain = 0
KTA1 150056Z 14009KT 08/03 A3016 RMK A01 T00770029  RH  072%=      5-min Rain = 0
KTA1 150057Z 14009KT 08/03 A3016 RMK A01 T00760029  RH  072%=      5-min Rain = 0
KTA1 150058Z 15008KT 08/03 A3016 RMK A01 T00750029  RH  072%=      5-min Rain = 0
KTA1 150059Z 15009KT 07/03 A3016 RMK A01 T00740028  RH  073%=      5-min Rain = 0
KTA1 150100Z 15008KT 07/03 A3016 RMK A01 T00740028  RH  073%=      5-min Rain = 0
KTA1 150101Z 15008KT 07/03 A3016 RMK A01 T00740029  RH  073%=      5-min Rain = 0
KTA1 150102Z 15008KT 07/03 A3016 RMK A01 T00730029  RH  073%=      5-min Rain = 0
KTA1 150103Z 14008KT 07/03 A3016 RMK A01 T00730028  RH  073%=      5-min Rain = 0
KTA1 150104Z 15008KT 07/03 A3016 RMK A01 T00720028  RH  074%=      5-min Rain = 0
KTA1 150105Z 15008KT 07/03 A3016 RMK A01 T00710028  RH  074%=      5-min Rain = 0
KTA1 150106Z 14008KT 07/03 A3016 RMK A01 T00710028  RH  074%=      5-min Rain = 0
KTA1 150107Z 14008KT 07/03 A3016 RMK A01 T00700028  RH  074%=      5-min Rain = 0
KTA1 150108Z 14008KT 07/03 A3016 RMK A01 T00700028  RH  075%=      5-min Rain = 0
KTA1 150109Z 14008KT 07/03 A3016 RMK A01 T00690028  RH  075%=      5-min Rain = 0
KTA1 150110Z 14008KT 07/03 A3016 RMK A01 T00690028  RH  075%=      5-min Rain = 0
KTA1 150111Z 14008KT 07/03 A3016 RMK A01 T00680028  RH  075%=      5-min Rain = 0
KTA1 150112Z 14008KT 07/03 A3016 RMK A01 T00680028  RH  076%=      5-min Rain = 0
KTA1 150113Z 14008KT 07/03 A3016 RMK A01 T00680028  RH  076%=      5-min Rain = 0
KTA1 150114Z 14007KT 07/03 A3017 RMK A01 T00680028  RH  076%=      5-min Rain = 0
KTA1 150115Z 14008KT 07/03 A3017 RMK A01 T00670027  RH  076%=      5-min Rain = 0
KTA1 150116Z 14008KT 07/03 A3017 RMK A01 T00660027  RH  076%=      5-min Rain = 0
KTA1 150117Z 14008KT 07/03 A3017 RMK A01 T00660027  RH  076%=      5-min Rain = 0
KTA1 150118Z 14008KT 07/03 A3017 RMK A01 T00660027  RH  076%=      5-min Rain = 0
KTA1 150119Z 14008KT 07/03 A3017 RMK A01 T00650027  RH  077%=      5-min Rain = 0
KTA1 150120Z 14008KT 07/03 A3017 RMK A01 T00650027  RH  077%=      5-min Rain = 0
KTA1 150121Z 14008KT 06/03 A3017 RMK A01 T00640027  RH  077%=      5-min Rain = 0
KTA1 150122Z 14008KT 06/03 A3017 RMK A01 T00640027  RH  077%=      5-min Rain = 0
KTA1 150123Z 14008KT 06/03 A3017 RMK A01 T00640027  RH  077%=      5-min Rain = 0
KTA1 150124Z 14008KT 06/03 A3017 RMK A01 T00630027  RH  077%=      5-min Rain = 0
KTA1 150125Z 14008KT 06/03 A3017 RMK A01 T00630026  RH  078%=      5-min Rain = 0
KTA1 150126Z 14009KT 06/03 A3017 RMK A01 T00630027  RH  078%=      5-min Rain = 0
KTA1 150127Z 14009KT 06/03 A3017 RMK A01 T00630027  RH  078%=      5-min Rain = 0
KTA1 150128Z 14008KT 06/03 A3017 RMK A01 T00620026  RH  078%=      5-min Rain = 0
KTA1 150129Z 14008KT 06/03 A3017 RMK A01 T00620026  RH  078%=      5-min Rain = 0
KTA1 150130Z 14008KT 06/03 A3017 RMK A01 T00610026  RH  078%=      5-min Rain = 0
KTA1 150131Z 14008KT 06/03 A3017 RMK A01 T00610026  RH  078%=      5-min Rain = 0
KTA1 150132Z 14008KT 06/03 A3017 RMK A01 T00600026  RH  079%=      5-min Rain = 0
KTA1 150133Z 14008KT 06/03 A3017 RMK A01 T00600026  RH  079%=      5-min Rain = 0
KTA1 150134Z 14008KT 06/03 A3017 RMK A01 T00600026  RH  079%=      5-min Rain = 0
KTA1 150135Z 14007KT 06/03 A3017 RMK A01 T00590026  RH  079%=      5-min Rain = 0
KTA1 150136Z 14007KT 06/03 A3017 RMK A01 T00590026  RH  079%=      5-min Rain = 0
KTA1 150137Z 14007KT 06/03 A3017 RMK A01 T00590026  RH  080%=      5-min Rain = 0
KTA1 150138Z 14007KT 06/03 A3017 RMK A01 T00580026  RH  080%=      5-min Rain = 0
KTA1 150139Z 14007KT 06/03 A3017 RMK A01 T00580026  RH  080%=      5-min Rain = 0
KTA1 150140Z 14007KT 06/03 A3017 RMK A01 T00580026  RH  080%=      5-min Rain = 0
KTA1 150141Z 14007KT 06/03 A3017 RMK A01 T00580026  RH  080%=      5-min Rain = 0
KTA1 150142Z 13007KT 06/03 A3017 RMK A01 T00570026  RH  080%=      5-min Rain = 0
KTA1 150143Z 13007KT 06/03 A3017 RMK A01 T00570026  RH  080%=      5-min Rain = 0
KTA1 150144Z 13007KT 06/03 A3017 RMK A01 T00570026  RH  080%=      5-min Rain = 0
KTA1 150145Z 13007KT 06/03 A3017 RMK A01 T00570026  RH  081%=      5-min Rain = 0
KTA1 150146Z 13007KT 06/03 A3017 RMK A01 T00560026  RH  081%=      5-min Rain = 0
KTA1 150147Z 13007KT 06/03 A3017 RMK A01 T00560025  RH  081%=      5-min Rain = 0
KTA1 150148Z 13007KT 06/03 A3017 RMK A01 T00550025  RH  081%=      5-min Rain = 0
KTA1 150149Z 13007KT 06/03 A3017 RMK A01 T00550025  RH  081%=      5-min Rain = 0
KTA1 150150Z 13007KT 05/03 A3017 RMK A01 T00540025  RH  081%=      5-min Rain = 0
KTA1 150151Z 13007KT 05/03 A3017 RMK A01 T00540025  RH  081%=      5-min Rain = 0
KTA1 150152Z 13007KT 05/02 A3017 RMK A01 T00530024  RH  082%=      5-min Rain = 0
KTA1 150153Z 13007KT 05/02 A3017 RMK A01 T00520024  RH  082%=      5-min Rain = 0
KTA1 150154Z 13007KT 05/02 A3017 RMK A01 T00520024  RH  082%=      5-min Rain = 0
KTA1 150155Z 13007KT 05/02 A3017 RMK A01 T00510024  RH  083%=      5-min Rain = 0
KTA1 150156Z 13008KT 05/02 A3017 RMK A01 T00510024  RH  083%=      5-min Rain = 0
KTA1 150157Z 13008KT 05/02 A3017 RMK A01 T00500024  RH  083%=      5-min Rain = 0
KTA1 150158Z 13008KT 05/02 A3017 RMK A01 T00500024  RH  083%=      5-min Rain = 0
KTA1 150159Z 14008KT 05/02 A3017 RMK A01 T00500024  RH  083%=      5-min Rain = 0
KTA1 150200Z 13008KT 05/03 A3017 RMK A01 T00500025  RH  083%=      5-min Rain = 0
KTA1 150201Z 14009KT 05/03 A3017 RMK A01 T00510025  RH  083%=      5-min Rain = 0
KTA1 150202Z 14009KT 05/03 A3017 RMK A01 T00520025  RH  083%=      5-min Rain = 0
KTA1 150203Z 13009KT 05/03 A3017 RMK A01 T00520025  RH  083%=      5-min Rain = 0
KTA1 150204Z 14009KT 05/03 A3017 RMK A01 T00520025  RH  083%=      5-min Rain = 0
KTA1 150205Z 14009KT 05/03 A3017 RMK A01 T00520025  RH  082%=      5-min Rain = 0
KTA1 150206Z 14009KT 05/03 A3017 RMK A01 T00530025  RH  082%=      5-min Rain = 0
KTA1 150207Z 14009KT 05/03 A3017 RMK A01 T00530025  RH  082%=      5-min Rain = 0
KTA1 150208Z 14009KT 05/03 A3017 RMK A01 T00530025  RH  082%=      5-min Rain = 0
KTA1 150209Z 14009KT 05/03 A3017 RMK A01 T00530025  RH  082%=      5-min Rain = 0
KTA1 150210Z 14009KT 05/03 A3017 RMK A01 T00530025  RH  082%=      5-min Rain = 0
KTA1 150211Z 14009KT 05/03 A3017 RMK A01 T00530025  RH  082%=      5-min Rain = 0
KTA1 150212Z 13009KT 05/03 A3017 RMK A01 T00540026  RH  082%=      5-min Rain = 0
KTA1 150213Z 13009KT 05/03 A3017 RMK A01 T00540026  RH  082%=      5-min Rain = 0
KTA1 150214Z 14009KT 05/03 A3017 RMK A01 T00540026  RH  082%=      5-min Rain = 0
KTA1 150215Z 14009KT 05/03 A3017 RMK A01 T00540026  RH  082%=      5-min Rain = 0
KTA1 150216Z 14009KT 06/03 A3017 RMK A01 T00550026  RH  082%=      5-min Rain = 0
KTA1 150217Z 14009KT 06/03 A3017 RMK A01 T00550026  RH  082%=      5-min Rain = 0
KTA1 150218Z 14009KT 06/03 A3017 RMK A01 T00560027  RH  082%=      5-min Rain = 0
KTA1 150219Z 14009KT 06/03 A3017 RMK A01 T00560027  RH  081%=      5-min Rain = 0
KTA1 150220Z 14010KT 06/03 A3017 RMK A01 T00560026  RH  081%=      5-min Rain = 0
KTA1 150221Z 14009KT 06/03 A3017 RMK A01 T00560026  RH  081%=      5-min Rain = 0
KTA1 150222Z 14009KT 06/03 A3017 RMK A01 T00560026  RH  081%=      5-min Rain = 0
KTA1 150223Z 14009KT 06/03 A3017 RMK A01 T00570027  RH  081%=      5-min Rain = 0
KTA1 150224Z 14009KT 06/03 A3017 RMK A01 T00560027  RH  081%=      5-min Rain = 0
KTA1 150225Z 14009KT 06/03 A3017 RMK A01 T00560026  RH  081%=      5-min Rain = 0
KTA1 150226Z 14009KT 06/03 A3017 RMK A01 T00560027  RH  082%=      5-min Rain = 0
KTA1 150227Z 14010KT 06/03 A3017 RMK A01 T00560027  RH  082%=      5-min Rain = 0
KTA1 150228Z 14010KT 06/03 A3017 RMK A01 T00560027  RH  081%=      5-min Rain = 0
KTA1 150229Z 14010KT 06/03 A3017 RMK A01 T00560027  RH  081%=      5-min Rain = 0
KTA1 150230Z 14010KT 06/03 A3017 RMK A01 T00560027  RH  081%=      5-min Rain = 0
KTA1 150231Z 14010KT 06/03 A3017 RMK A01 T00570027  RH  081%=      5-min Rain = 0
KTA1 150232Z 14011KT 06/03 A3017 RMK A01 T00570028  RH  081%=      5-min Rain = 0
KTA1 150233Z 14010KT 06/03 A3017 RMK A01 T00580028  RH  081%=      5-min Rain = 0
KTA1 150234Z 14010KT 06/03 A3017 RMK A01 T00580028  RH  081%=      5-min Rain = 0
KTA1 150235Z 14010KT 06/03 A3017 RMK A01 T00590028  RH  081%=      5-min Rain = 0
KTA1 150236Z 14009KT 06/03 A3017 RMK A01 T00590029  RH  081%=      5-min Rain = 0
KTA1 150237Z 14010KT 06/03 A3017 RMK A01 T00590029  RH  081%=      5-min Rain = 0
KTA1 150238Z 14010KT 06/03 A3017 RMK A01 T00590029  RH  081%=      5-min Rain = 0
KTA1 150239Z 14010KT 06/03 A3017 RMK A01 T00590029  RH  081%=      5-min Rain = 0
KTA1 150240Z 14010KT 06/03 A3017 RMK A01 T00590029  RH  081%=      5-min Rain = 0
KTA1 150241Z 14010KT 06/03 A3017 RMK A01 T00590029  RH  081%=      5-min Rain = 0
KTA1 150242Z 15010KT 06/03 A3017 RMK A01 T00590029  RH  081%=      5-min Rain = 0
KTA1 150243Z 15010KT 06/03 A3017 RMK A01 T00590029  RH  081%=      5-min Rain = 0
KTA1 150244Z 15010KT 06/03 A3017 RMK A01 T00600029  RH  081%=      5-min Rain = 0
KTA1 150245Z 14011KT 06/03 A3017 RMK A01 T00600029  RH  080%=      5-min Rain = 0
KTA1 150246Z 15010KT 06/03 A3017 RMK A01 T00600029  RH  080%=      5-min Rain = 0
KTA1 150247Z 15011KT 06/03 A3017 RMK A01 T00610029  RH  080%=      5-min Rain = 0
KTA1 150248Z 15011KT 06/03 A3017 RMK A01 T00610029  RH  080%=      5-min Rain = 0
KTA1 150249Z 15011KT 06/03 A3017 RMK A01 T00620030  RH  080%=      5-min Rain = 0
KTA1 150250Z 15010KT 06/03 A3017 RMK A01 T00620029  RH  080%=      5-min Rain = 0
KTA1 150251Z 14011KT 06/03 A3017 RMK A01 T00620030  RH  080%=      5-min Rain = 0
KTA1 150252Z 15011KT 06/03 A3017 RMK A01 T00630030  RH  080%=      5-min Rain = 0
KTA1 150253Z 15011KT 06/03 A3017 RMK A01 T00630030  RH  079%=      5-min Rain = 0
KTA1 150254Z 15011KT 06/03 A3017 RMK A01 T00630030  RH  079%=      5-min Rain = 0
KTA1 150255Z 15010KT 06/03 A3017 RMK A01 T00640030  RH  079%=      5-min Rain = 0
KTA1 150256Z 15010KT 06/03 A3017 RMK A01 T00640030  RH  079%=      5-min Rain = 0
KTA1 150257Z 15011KT 06/03 A3017 RMK A01 T00630030  RH  079%=      5-min Rain = 0
KTA1 150258Z 15011KT 06/03 A3017 RMK A01 T00630030  RH  079%=      5-min Rain = 0
KTA1 150259Z 15011KT 06/03 A3017 RMK A01 T00630030  RH  079%=      5-min Rain = 0
KTA1 150300Z 15010KT 06/03 A3017 RMK A01 T00630030  RH  079%=      5-min Rain = 0
KTA1 150301Z 15011KT 06/03 A3017 RMK A01 T00630030  RH  079%=      5-min Rain = 0
KTA1 150302Z 15009KT 06/03 A3017 RMK A01 T00630030  RH  079%=      5-min Rain = 0
KTA1 150303Z 15011KT 06/03 A3017 RMK A01 T00630030  RH  079%=      5-min Rain = 0
KTA1 150304Z 15010KT 06/03 A3017 RMK A01 T00640030  RH  079%=      5-min Rain = 0
KTA1 150305Z 15010KT 06/03 A3017 RMK A01 T00640030  RH  079%=      5-min Rain = 0
KTA1 150306Z 15009KT 06/03 A3017 RMK A01 T00640030  RH  079%=      5-min Rain = 0
KTA1 150307Z 15009KT 06/03 A3017 RMK A01 T00640030  RH  079%=      5-min Rain = 0
KTA1 150308Z 16009KT 06/03 A3018 RMK A01 T00640030  RH  079%=      5-min Rain = 0
KTA1 150309Z 15010KT 06/03 A3018 RMK A01 T00640030  RH  079%=      5-min Rain = 0
KTA1 150310Z 15010KT 06/03 A3018 RMK A01 T00640030  RH  079%=      5-min Rain = 0
KTA1 150311Z 16009KT 06/03 A3018 RMK A01 T00630030  RH  079%=      5-min Rain = 0
KTA1 150312Z 16009KT 06/03 A3018 RMK A01 T00630030  RH  079%=      5-min Rain = 0
KTA1 150313Z 16010KT 06/03 A3018 RMK A01 T00620030  RH  080%=      5-min Rain = 0
KTA1 150314Z 16009KT 06/03 A3018 RMK A01 T00620030  RH  080%=      5-min Rain = 0
KTA1 150315Z 16010KT 06/03 A3018 RMK A01 T00620030  RH  080%=      5-min Rain = 0
KTA1 150316Z 16009KT 06/03 A3018 RMK A01 T00620030  RH  080%=      5-min Rain = 0
KTA1 150317Z 16008KT 06/03 A3018 RMK A01 T00620030  RH  080%=      5-min Rain = 0
KTA1 150318Z 16009KT 06/03 A3018 RMK A01 T00620030  RH  080%=      5-min Rain = 0
KTA1 150319Z 16009KT 06/03 A3018 RMK A01 T00620030  RH  080%=      5-min Rain = 0
KTA1 150320Z 16010KT 06/03 A3018 RMK A01 T00620030  RH  080%=      5-min Rain = 0
KTA1 150321Z 16010KT 06/03 A3018 RMK A01 T00620030  RH  080%=      5-min Rain = 0
KTA1 150322Z 16010KT 06/03 A3017 RMK A01 T00620030  RH  080%=      5-min Rain = 0
KTA1 150323Z 16010KT 06/03 A3017 RMK A01 T00620031  RH  080%=      5-min Rain = 0
KTA1 150324Z 15009KT 06/03 A3017 RMK A01 T00630031  RH  080%=      5-min Rain = 0
KTA1 150325Z 16011KT 06/03 A3017 RMK A01 T00620031  RH  080%=      5-min Rain = 0
KTA1 150326Z 16010KT 06/03 A3018 RMK A01 T00620031  RH  080%=      5-min Rain = 0
KTA1 150327Z 16011KT 06/03 A3018 RMK A01 T00620030  RH  080%=      5-min Rain = 0
KTA1 150328Z 16010KT 06/03 A3018 RMK A01 T00620031  RH  080%=      5-min Rain = 0
KTA1 150329Z 16011KT 06/03 A3018 RMK A01 T00630031  RH  080%=      5-min Rain = 0
KTA1 150330Z 16010KT 06/03 A3018 RMK A01 T00630031  RH  080%=      5-min Rain = 0
KTA1 150331Z 16011KT 06/03 A3018 RMK A01 T00630031  RH  080%=      5-min Rain = 0
KTA1 150332Z 16010KT 06/03 A3018 RMK A01 T00630031  RH  080%=      5-min Rain = 0
KTA1 150333Z 15011KT 06/03 A3018 RMK A01 T00620031  RH  080%=      5-min Rain = 0
KTA1 150334Z 16011KT 06/03 A3018 RMK A01 T00620031  RH  080%=      5-min Rain = 0
KTA1 150335Z 16011KT 06/03 A3018 RMK A01 T00620031  RH  080%=      5-min Rain = 0
KTA1 150336Z 15011KT 06/03 A3018 RMK A01 T00630031  RH  080%=      5-min Rain = 0
KTA1 150337Z 16012KT 06/03 A3018 RMK A01 T00630031  RH  080%=      5-min Rain = 0
KTA1 150338Z 16011KT 06/03 A3018 RMK A01 T00630031  RH  080%=      5-min Rain = 0
KTA1 150339Z 15012KT 06/03 A3018 RMK A01 T00630031  RH  080%=      5-min Rain = 0
KTA1 150340Z 16011KT 06/03 A3018 RMK A01 T00630031  RH  080%=      5-min Rain = 0
KTA1 150341Z 15012KT 06/03 A3017 RMK A01 T00630031  RH  080%=      5-min Rain = 0
KTA1 150342Z 16013KT 06/03 A3017 RMK A01 T00640031  RH  080%=      5-min Rain = 0
KTA1 150343Z 16011KT 06/03 A3017 RMK A01 T00640031  RH  080%=      5-min Rain = 0
KTA1 150344Z 16011KT 06/03 A3017 RMK A01 T00640031  RH  080%=      5-min Rain = 0
KTA1 150345Z 16011KT 06/03 A3018 RMK A01 T00640031  RH  080%=      5-min Rain = 0
KTA1 150346Z 16013KT 06/03 A3018 RMK A01 T00640032  RH  080%=      5-min Rain = 0
KTA1 150347Z 16012KT 06/03 A3017 RMK A01 T00640031  RH  080%=      5-min Rain = 0
KTA1 150348Z 16012KT 06/03 A3017 RMK A01 T00640031  RH  080%=      5-min Rain = 0
KTA1 150349Z 16012KT 06/03 A3017 RMK A01 T00640032  RH  079%=      5-min Rain = 0
KTA1 150350Z 16010KT 06/03 A3017 RMK A01 T00640031  RH  079%=      5-min Rain = 0
KTA1 150351Z 16012KT 07/03 A3017 RMK A01 T00650032  RH  079%=      5-min Rain = 0
KTA1 150352Z 16011KT 07/03 A3017 RMK A01 T00650032  RH  079%=      5-min Rain = 0
KTA1 150353Z 17011KT 06/03 A3017 RMK A01 T00640032  RH  080%=      5-min Rain = 0
KTA1 150354Z 17011KT 06/03 A3017 RMK A01 T00640032  RH  080%=      5-min Rain = 0
KTA1 150355Z 16011KT 06/03 A3017 RMK A01 T00640032  RH  080%=      5-min Rain = 0
KTA1 150356Z 16011KT 06/03 A3017 RMK A01 T00630032  RH  080%=      5-min Rain = 0
KTA1 150357Z 16011KT 06/03 A3017 RMK A01 T00630032  RH  080%=      5-min Rain = 0
KTA1 150358Z 16012KT 06/03 A3017 RMK A01 T00630031  RH  080%=      5-min Rain = 0
KTA1 150359Z 16011KT 06/03 A3017 RMK A01 T00630031  RH  080%=      5-min Rain = 0
KTA1 150400Z 16011KT 06/03 A3017 RMK A01 T00630031  RH  080%=      5-min Rain = 0
KTA1 150401Z 16011KT 06/03 A3017 RMK A01 T00620031  RH  081%=      5-min Rain = 0
KTA1 150402Z 16011KT 06/03 A3017 RMK A01 T00620031  RH  081%=      5-min Rain = 0
KTA1 150403Z 16010KT 06/03 A3017 RMK A01 T00620032  RH  081%=      5-min Rain = 0
KTA1 150404Z 15010KT 06/03 A3017 RMK A01 T00620031  RH  081%=      5-min Rain = 0
KTA1 150405Z 16010KT 06/03 A3017 RMK A01 T00620032  RH  081%=      5-min Rain = 0
KTA1 150406Z 16011KT 06/03 A3017 RMK A01 T00620031  RH  081%=      5-min Rain = 0
KTA1 150407Z 16012KT 06/03 A3017 RMK A01 T00620031  RH  081%=      5-min Rain = 0
KTA1 150408Z 16010KT 06/03 A3017 RMK A01 T00620031  RH  081%=      5-min Rain = 0
KTA1 150409Z 16009KT 06/03 A3017 RMK A01 T00620031  RH  081%=      5-min Rain = 0
KTA1 150410Z 16010KT 06/03 A3017 RMK A01 T00610031  RH  081%=      5-min Rain = 0
KTA1 150411Z 16010KT 06/03 A3017 RMK A01 T00610031  RH  081%=      5-min Rain = 0
KTA1 150412Z 16010KT 06/03 A3017 RMK A01 T00600031  RH  081%=      5-min Rain = 0
KTA1 150413Z 17009KT 06/03 A3017 RMK A01 T00600031  RH  082%=      5-min Rain = 0
KTA1 150414Z 17010KT 06/03 A3017 RMK A01 T00590031  RH  082%=      5-min Rain = 0
KTA1 150415Z 16011KT 06/03 A3017 RMK A01 T00590030  RH  082%=      5-min Rain = 0
KTA1 150416Z 17010KT 06/03 A3017 RMK A01 T00590030  RH  082%=      5-min Rain = 0
KTA1 150417Z 16010KT 06/03 A3017 RMK A01 T00590030  RH  082%=      5-min Rain = 0
KTA1 150418Z 17010KT 06/03 A3017 RMK A01 T00600030  RH  082%=      5-min Rain = 0
KTA1 150419Z 17010KT 06/03 A3017 RMK A01 T00590030  RH  082%=      5-min Rain = 0
KTA1 150420Z 17010KT 06/03 A3017 RMK A01 T00590031  RH  082%=      5-min Rain = 0
KTA1 150421Z 17011KT 06/03 A3017 RMK A01 T00590031  RH  082%=      5-min Rain = 0
KTA1 150422Z 17011KT 06/03 A3017 RMK A01 T00590030  RH  082%=      5-min Rain = 0
KTA1 150423Z 17010KT 06/03 A3017 RMK A01 T00590030  RH  082%=      5-min Rain = 0
KTA1 150424Z 17011KT 06/03 A3017 RMK A01 T00590030  RH  082%=      5-min Rain = 0
KTA1 150425Z 16010KT 06/03 A3017 RMK A01 T00590030  RH  082%=      5-min Rain = 0
KTA1 150426Z 16011KT 06/03 A3017 RMK A01 T00590030  RH  082%=      5-min Rain = 0
KTA1 150427Z 16011KT 06/03 A3017 RMK A01 T00590030  RH  082%=      5-min Rain = 0
KTA1 150428Z 17010KT 06/03 A3017 RMK A01 T00580030  RH  082%=      5-min Rain = 0
KTA1 150429Z 16012KT 06/03 A3017 RMK A01 T00580030  RH  082%=      5-min Rain = 0
KTA1 150430Z 16010KT 06/03 A3016 RMK A01 T00580030  RH  082%=      5-min Rain = 0
KTA1 150431Z 16009KT 06/03 A3016 RMK A01 T00580029  RH  082%=      5-min Rain = 0
KTA1 150432Z 16010KT 06/03 A3016 RMK A01 T00580030  RH  082%=      5-min Rain = 0
KTA1 150433Z 16011KT 06/03 A3016 RMK A01 T00570030  RH  082%=      5-min Rain = 0
KTA1 150434Z 16011KT 06/03 A3016 RMK A01 T00570030  RH  082%=      5-min Rain = 0
KTA1 150435Z 16010KT 06/03 A3016 RMK A01 T00570029  RH  082%=      5-min Rain = 0
KTA1 150436Z 16011KT 06/03 A3016 RMK A01 T00570029  RH  082%=      5-min Rain = 0
KTA1 150437Z 16011KT 06/03 A3016 RMK A01 T00570029  RH  082%=      5-min Rain = 0
KTA1 150438Z 17010KT 06/03 A3017 RMK A01 T00570029  RH  082%=      5-min Rain = 0
KTA1 150439Z 17009KT 06/03 A3017 RMK A01 T00570029  RH  082%=      5-min Rain = 0
KTA1 150440Z 17011KT 06/03 A3017 RMK A01 T00570029  RH  082%=      5-min Rain = 0
KTA1 150441Z 17010KT 06/03 A3017 RMK A01 T00570030  RH  083%=      5-min Rain = 0
KTA1 150442Z 16011KT 06/03 A3017 RMK A01 T00570030  RH  083%=      5-min Rain = 0
KTA1 150443Z 17010KT 06/03 A3016 RMK A01 T00570029  RH  083%=      5-min Rain = 0
KTA1 150444Z 17010KT 06/03 A3016 RMK A01 T00570030  RH  083%=      5-min Rain = 0
KTA1 150445Z 17011KT 06/03 A3016 RMK A01 T00560029  RH  083%=      5-min Rain = 0
KTA1 150446Z 16011KT 06/03 A3017 RMK A01 T00560029  RH  083%=      5-min Rain = 0
KTA1 150447Z 17010KT 06/03 A3017 RMK A01 T00560029  RH  083%=      5-min Rain = 0
KTA1 150448Z 17010KT 06/03 A3017 RMK A01 T00560029  RH  083%=      5-min Rain = 0
KTA1 150449Z 17010KT 06/03 A3017 RMK A01 T00560029  RH  083%=      5-min Rain = 0
KTA1 150450Z 17010KT 06/03 A3016 RMK A01 T00550029  RH  083%=      5-min Rain = 0
KTA1 150451Z 17009KT 06/03 A3016 RMK A01 T00550029  RH  083%=      5-min Rain = 0
KTA1 150452Z 17010KT 06/03 A3016 RMK A01 T00550029  RH  083%=      5-min Rain = 0
KTA1 150453Z 17011KT 06/03 A3016 RMK A01 T00550029  RH  083%=      5-min Rain = 0
KTA1 150454Z 16010KT 06/03 A3016 RMK A01 T00550029  RH  083%=      5-min Rain = 0
KTA1 150455Z 17009KT 06/03 A3016 RMK A01 T00550029  RH  083%=      5-min Rain = 0
KTA1 150456Z 17010KT 05/03 A3016 RMK A01 T00540029  RH  084%=      5-min Rain = 0
KTA1 150457Z 17011KT 05/03 A3016 RMK A01 T00540029  RH  084%=      5-min Rain = 0
KTA1 150458Z 17009KT 05/03 A3016 RMK A01 T00530028  RH  084%=      5-min Rain = 0
KTA1 150459Z 17010KT 05/03 A3016 RMK A01 T00540029  RH  084%=      5-min Rain = 0
KTA1 150500Z 17009KT 05/03 A3016 RMK A01 T00540029  RH  084%=      5-min Rain = 0
KTA1 150501Z 17010KT 05/03 A3016 RMK A01 T00530028  RH  084%=      5-min Rain = 0
KTA1 150502Z 17009KT 05/03 A3016 RMK A01 T00530028  RH  084%=      5-min Rain = 0
KTA1 150503Z 17010KT 05/03 A3016 RMK A01 T00530028  RH  084%=      5-min Rain = 0
KTA1 150504Z 17009KT 05/03 A3016 RMK A01 T00530028  RH  084%=      5-min Rain = 0
KTA1 150505Z 17010KT 05/03 A3016 RMK A01 T00530028  RH  084%=      5-min Rain = 0
KTA1 150506Z 17008KT 05/03 A3016 RMK A01 T00530028  RH  084%=      5-min Rain = 0
KTA1 150507Z 17009KT 05/03 A3016 RMK A01 T00520028  RH  084%=      5-min Rain = 0
KTA1 150508Z 17010KT 05/03 A3016 RMK A01 T00520028  RH  084%=      5-min Rain = 0
KTA1 150509Z 17009KT 05/03 A3016 RMK A01 T00520028  RH  084%=      5-min Rain = 0
KTA1 150510Z 17010KT 05/03 A3016 RMK A01 T00530028  RH  084%=      5-min Rain = 0
KTA1 150511Z 17010KT 05/03 A3016 RMK A01 T00520028  RH  084%=      5-min Rain = 0
KTA1 150512Z 17010KT 05/03 A3016 RMK A01 T00520028  RH  084%=      5-min Rain = 0
KTA1 150513Z 17008KT 05/03 A3016 RMK A01 T00520028  RH  084%=      5-min Rain = 0
KTA1 150514Z 17010KT 05/03 A3016 RMK A01 T00520028  RH  084%=      5-min Rain = 0
KTA1 150515Z 17009KT 05/03 A3016 RMK A01 T00520028  RH  084%=      5-min Rain = 0
KTA1 150516Z 17009KT 05/03 A3016 RMK A01 T00520028  RH  084%=      5-min Rain = 0
KTA1 150517Z 18011KT 05/03 A3016 RMK A01 T00510027  RH  085%=      5-min Rain = 0
KTA1 150518Z 17009KT 05/03 A3016 RMK A01 T00510027  RH  085%=      5-min Rain = 0
KTA1 150519Z 17009KT 05/03 A3016 RMK A01 T00510027  RH  084%=      5-min Rain = 0
KTA1 150520Z 17009KT 05/03 A3016 RMK A01 T00510027  RH  085%=      5-min Rain = 0
KTA1 150521Z 17009KT 05/03 A3016 RMK A01 T00510027  RH  085%=      5-min Rain = 0
KTA1 150522Z 17009KT 05/03 A3016 RMK A01 T00510027  RH  084%=      5-min Rain = 0
KTA1 150523Z 18007KT 05/03 A3016 RMK A01 T00510027  RH  085%=      5-min Rain = 0
KTA1 150524Z 17008KT 05/03 A3016 RMK A01 T00510027  RH  084%=      5-min Rain = 0
KTA1 150525Z 17008KT 05/03 A3016 RMK A01 T00510027  RH  085%=      5-min Rain = 0
KTA1 150526Z 17008KT 05/03 A3016 RMK A01 T00510027  RH  085%=      5-min Rain = 0
KTA1 150527Z 17008KT 05/03 A3016 RMK A01 T00500027  RH  085%=      5-min Rain = 0
KTA1 150528Z 17008KT 05/03 A3016 RMK A01 T00490026  RH  085%=      5-min Rain = 0
KTA1 150529Z 17008KT 05/03 A3016 RMK A01 T00490026  RH  085%=      5-min Rain = 0
KTA1 150530Z 17008KT 05/03 A3016 RMK A01 T00490026  RH  085%=      5-min Rain = 0
KTA1 150531Z 17008KT 05/03 A3016 RMK A01 T00480026  RH  086%=      5-min Rain = 0
KTA1 150532Z 17008KT 05/03 A3016 RMK A01 T00480026  RH  086%=      5-min Rain = 0
KTA1 150533Z 17008KT 05/03 A3016 RMK A01 T00480026  RH  086%=      5-min Rain = 0
KTA1 150534Z 17009KT 05/03 A3016 RMK A01 T00480026  RH  086%=      5-min Rain = 0
KTA1 150535Z 17008KT 05/03 A3016 RMK A01 T00480026  RH  086%=      5-min Rain = 0
KTA1 150536Z 17007KT 05/03 A3016 RMK A01 T00480026  RH  086%=      5-min Rain = 0
KTA1 150537Z 17007KT 05/03 A3016 RMK A01 T00480026  RH  086%=      5-min Rain = 0
KTA1 150538Z 17007KT 05/03 A3016 RMK A01 T00470026  RH  086%=      5-min Rain = 0
KTA1 150539Z 17007KT 05/03 A3016 RMK A01 T00470025  RH  086%=      5-min Rain = 0
KTA1 150540Z 17007KT 05/03 A3016 RMK A01 T00470026  RH  086%=      5-min Rain = 0
KTA1 150541Z 17007KT 05/03 A3016 RMK A01 T00460025  RH  086%=      5-min Rain = 0
KTA1 150542Z 17007KT 05/03 A3016 RMK A01 T00460025  RH  086%=      5-min Rain = 0
KTA1 150543Z 17007KT 05/03 A3016 RMK A01 T00460025  RH  087%=      5-min Rain = 0
KTA1 150544Z 17007KT 05/03 A3016 RMK A01 T00460025  RH  086%=      5-min Rain = 0
KTA1 150545Z 18007KT 05/03 A3016 RMK A01 T00460025  RH  087%=      5-min Rain = 0
KTA1 150546Z 18007KT 05/03 A3016 RMK A01 T00460025  RH  087%=      5-min Rain = 0
KTA1 150547Z 18005KT 05/03 A3016 RMK A01 T00460025  RH  087%=      5-min Rain = 0
KTA1 150548Z 18006KT 05/03 A3016 RMK A01 T00460025  RH  087%=      5-min Rain = 0
KTA1 150549Z 17006KT 05/03 A3016 RMK A01 T00450025  RH  087%=      5-min Rain = 0
KTA1 150550Z 18006KT 05/03 A3016 RMK A01 T00450025  RH  087%=      5-min Rain = 0
KTA1 150551Z 18006KT 05/03 A3016 RMK A01 T00450025  RH  087%=      5-min Rain = 0
KTA1 150552Z 17006KT 05/03 A3015 RMK A01 T00450025  RH  087%=      5-min Rain = 0
KTA1 150553Z 18006KT 05/03 A3015 RMK A01 T00450025  RH  087%=      5-min Rain = 0
KTA1 150554Z 18007KT 05/03 A3015 RMK A01 T00450025  RH  087%=      5-min Rain = 0
KTA1 150555Z 18008KT 05/03 A3015 RMK A01 T00450025  RH  087%=      5-min Rain = 0
KTA1 150556Z 18007KT 05/03 A3015 RMK A01 T00460025  RH  087%=      5-min Rain = 0
KTA1 150557Z 18006KT 05/03 A3015 RMK A01 T00470026  RH  086%=      5-min Rain = 0
KTA1 150558Z 18007KT 05/03 A3015 RMK A01 T00470025  RH  086%=      5-min Rain = 0
KTA1 150559Z 18007KT 05/03 A3015 RMK A01 T00470025  RH  086%=      5-min Rain = 0

Page generated in 0.1982 seconds.